WD9GET Weather Reports


Display with metric or nautical units.
time (UTC)temp
F
wind
direction
speed
MPH
gust
MPH
rain 1hr
in
rain 24hr
in
rain mn
in
humidity
%
barometer
mb
20260902125456 78 165 0.0 1.0 0.00 0.00 0.00 94 1014.1
20260902125356 78 52 0.0 1.0 0.00 0.00 0.00 94 1014.1
20260902125256 78 46 0.0 1.0 0.00 0.00 0.00 94 1014.1
20260902125156 78 0 0.0 1.0 0.00 0.00 0.00 94 1014.1
20260902125048 78 60 0.0 1.0 0.00 0.00 0.00 94 1014.0
20260902124951 78 0 0.0 1.0 0.00 0.00 0.00 94 1014.0
20260902124854 78 0 0.0 1.0 0.00 0.00 0.00 94 1014.0
20260902124753 78 0 0.0 1.0 0.00 0.00 0.00 94 1014.0
20260902124651 78 339 0.0 1.0 0.00 0.00 0.00 94 1014.0
20260902124549 78 0 0.0 1.0 0.00 0.00 0.00 94 1014.0
20260902124446 78 0 0.0 1.0 0.00 0.00 0.00 94 1014.0
20260902124343 78 0 0.0 1.0 0.00 0.00 0.00 94 1014.0
20260902124243 78 324 0.0 1.0 0.00 0.00 0.00 94 1014.0
20260902124144 78 8 0.0 1.0 0.00 0.00 0.00 94 1014.0
20260902124044 78 55 0.0 1.0 0.00 0.00 0.00 94 1013.8
20260902123944 78 139 0.0 1.0 0.00 0.00 0.00 94 1013.8
20260902123843 78 195 0.0 2.0 0.00 0.00 0.00 94 1013.8
20260902123743 78 339 0.0 2.0 0.00 0.00 0.00 94 1013.8
20260902123643 78 0 0.0 2.0 0.00 0.00 0.00 94 1013.8
20260902123549 78 345 0.0 2.0 0.00 0.00 0.00 94 1013.8
20260902123540 78 303 0.0 2.0 0.00 0.00 0.00 94 1013.8
20260902123440 78 327 0.0 2.0 0.00 0.00 0.00 94 1013.8
20260902123337 78 0 0.0 2.0 0.00 0.00 0.00 94 1013.8
20260902123234 78 0 0.0 2.0 0.00 0.00 0.00 94 1013.8
20260902123135 78 107 0.0 2.0 0.00 0.00 0.00 94 1013.8
20260902123048 78 73 0.0 2.0 0.00 0.00 0.00 94 1013.7
20260902123034 78 65 0.0 2.0 0.00 0.00 0.00 94 1013.7
20260902122935 78 99 0.0 2.0 0.00 0.00 0.00 94 1013.7
20260902122828 78 71 0.0 2.0 0.00 0.00 0.00 94 1013.7
20260902122809 78 0 0.0 1.0 0.00 0.00 0.00 95 1013.6
20260902122728 78 0 0.0 1.0 0.00 0.00 0.00 94 1013.7
20260902122653 78 0 0.0 1.0 0.00 0.00 0.00 94 1013.7
20260902122525 78 0 0.0 1.0 0.00 0.00 0.00 95 1013.6
20260902122425 78 0 0.0 1.0 0.00 0.00 0.00 95 1013.6
20260902122325 78 0 0.0 1.0 0.00 0.00 0.00 95 1013.6
20260902122225 78 0 0.0 2.0 0.00 0.00 0.00 95 1013.6
20260902122126 78 44 0.0 2.0 0.00 0.00 0.00 95 1013.5
20260902122045 78 0 0.0 2.0 0.00 0.00 0.00 95 1013.5
20260902122025 78 116 0.0 2.0 0.00 0.00 0.00 95 1013.5
20260902121925 78 0 0.0 2.0 0.00 0.00 0.00 95 1013.5
20260902121825 78 0 0.0 2.0 0.00 0.00 0.00 95 1013.5
20260902121725 78 322 0.0 2.0 0.00 0.00 0.00 95 1013.5
20260902121626 78 0 0.0 2.0 0.00 0.00 0.00 95 1013.4
20260902121543 78 27 0.0 2.0 0.00 0.00 0.00 95 1013.3
20260902121525 78 0 0.0 2.0 0.00 0.00 0.00 95 1013.3
20260902121425 78 26 0.0 2.0 0.00 0.00 0.00 95 1013.3
20260902121323 78 220 0.0 2.0 0.00 0.00 0.00 95 1013.3
20260902121220 78 0 0.0 1.0 0.00 0.00 0.00 96 1013.3
20260902121117 78 0 0.0 1.0 0.00 0.00 0.00 96 1013.3
20260902121017 78 0 0.0 1.0 0.00 0.00 0.00 96 1013.3
20260902120914 78 0 0.0 2.0 0.00 0.00 0.00 96 1013.3
20260902120813 78 0 0.0 2.0 0.00 0.00 0.00 96 1013.3
20260902120713 78 176 0.0 2.0 0.00 0.00 0.00 96 1013.3
20260902120610 78 0 0.0 2.0 0.00 0.00 0.00 96 1013.3
20260902120540 78 295 0.0 2.0 0.00 0.00 0.00 96 1013.3
20260902120507 78 0 0.0 2.0 0.00 0.00 0.00 96 1013.3
20260902120407 78 0 0.0 2.0 0.00 0.00 0.00 96 1013.3
20260902120305 78 210 0.0 2.0 0.00 0.00 0.00 96 1013.2
20260902120201 78 0 0.0 2.0 0.00 0.00 0.00 96 1013.2
20260902120057 78 0 0.0 2.0 0.00 0.00 0.00 96 1013.3
20260902120040 78 323 0.0 2.0 0.00 0.00 0.00 96 1013.3
20260902115957 78 358 0.0 2.0 0.00 0.00 0.00 96 1013.3
20260902115856 79 0 0.0 2.0 0.00 0.00 0.00 96 1013.3
20260902115756 79 282 0.0 2.0 0.00 0.00 0.00 97 1013.3
20260902115657 79 0 0.0 2.0 0.00 0.00 0.00 97 1013.3
20260902115557 79 0 0.0 2.0 0.00 0.00 0.00 97 1013.3
20260902115540 79 47 0.0 2.0 0.00 0.00 0.00 97 1013.3
20260902115456 79 0 0.0 2.0 0.00 0.00 0.00 97 1013.3
20260902115356 79 0 0.0 2.0 0.00 0.00 0.00 97 1013.3
20260902115253 79 164 0.0 2.0 0.00 0.00 0.00 97 1013.3
20260902115147 79 275 0.0 2.0 0.00 0.00 0.00 97 1013.3
20260902115034 79 0 0.0 2.0 0.00 0.00 0.00 97 1013.3
20260902114944 79 244 0.0 2.0 0.00 0.00 0.00 97 1013.3
20260902114844 79 0 0.0 2.0 0.00 0.00 0.00 98 1013.3
20260902114741 79 322 0.0 2.0 0.00 0.00 0.00 98 1013.3
20260902114635 79 259 0.0 2.0 0.00 0.00 0.00 98 1013.3
20260902114532 79 0 0.0 2.0 0.00 0.00 0.00 98 1013.3
20260902114433 79 246 1.0 2.0 0.00 0.00 0.00 98 1013.3
20260902114333 79 294 0.0 2.0 0.00 0.00 0.00 98 1013.3
20260902114232 79 0 0.0 2.0 0.00 0.00 0.00 98 1013.3
20260902114132 79 304 1.0 3.0 0.00 0.00 0.00 98 1013.3
20260902114032 79 277 0.0 3.0 0.00 0.00 0.00 98 1013.3
20260902113926 79 266 1.0 3.0 0.00 0.00 0.00 98 1013.3
20260902113826 79 287 0.0 3.0 0.00 0.00 0.00 98 1013.3
20260902113726 79 186 0.0 3.0 0.00 0.00 0.00 99 1013.3
20260902113626 79 350 0.0 3.0 0.00 0.00 0.00 99 1013.3
20260902113531 79 189 0.0 3.0 0.00 0.00 0.00 99 1013.3
20260902113526 79 224 0.0 3.0 0.00 0.00 0.00 99 1013.3
20260902113426 79 235 0.0 3.0 0.00 0.00 0.00 99 1013.3
20260902113326 79 120 0.0 3.0 0.00 0.00 0.00 99 1013.3
20260902113224 79 181 0.0 3.0 0.00 0.00 0.00 99 1013.3
20260902113124 79 255 0.0 3.0 0.00 0.00 0.00 99 1013.3
20260902113028 79 59 0.0 3.0 0.00 0.00 0.00 99 1013.3
20260902113024 79 34 0.0 3.0 0.00 0.00 0.00 99 1013.3
20260902112924 79 309 0.0 3.0 0.00 0.00 0.00 99 1013.4
20260902112823 79 0 0.0 3.0 0.00 0.00 0.00 99 1013.4
20260902112723 79 15 0.0 3.0 0.00 0.00 0.00 99 1013.4
20260902112621 79 36 0.0 3.0 0.00 0.00 0.00 99 1013.4
20260902112528 79 138 0.0 3.0 0.00 0.00 0.00 99 1013.4
20260902112515 79 0 0.0 3.0 0.00 0.00 0.00 99 1013.4
20260902112414 79 0 0.0 3.0 0.00 0.00 0.00 99 1013.4
20260902112314 79 0 0.0 3.0 0.00 0.00 0.00 99 1013.4
20260902112214 79 273 0.0 3.0 0.00 0.00 0.00 99 1013.4
20260902112115 79 225 0.0 1.0 0.00 0.00 0.00 99 1013.4
20260902112029 79 266 0.0 1.0 0.00 0.00 0.00 99 1013.4
20260902112014 79 0 0.0 1.0 0.00 0.00 0.00 99 1013.4
20260902111915 79 0 0.0 1.0 0.00 0.00 0.00 98 1013.4
20260902111814 79 0 0.0 1.0 0.00 0.00 0.00 98 1013.4
20260902111752 79 0 0.0 1.0 0.00 0.00 0.00 98 1013.3
20260902111714 79 31 0.0 1.0 0.00 0.00 0.00 98 1013.4
20260902111633 79 0 0.0 1.0 0.00 0.00 0.00 98 1013.4
20260902111512 79 0 0.0 1.0 0.00 0.00 0.00 98 1013.3
20260902111409 79 0 0.0 1.0 0.00 0.00 0.00 99 1013.3
20260902111309 79 0 0.0 2.0 0.00 0.00 0.00 98 1013.2
20260902111205 79 0 0.0 2.0 0.00 0.00 0.00 98 1013.2
20260902111105 79 0 0.0 2.0 0.00 0.00 0.00 98 1013.2
20260902111023 79 292 0.0 2.0 0.00 0.00 0.00 98 1013.2
20260902111005 79 0 0.0 2.0 0.00 0.00 0.00 98 1013.2
20260902110900 79 287 0.0 2.0 0.00 0.00 0.00 98 1013.2
20260902110800 79 208 0.0 2.0 0.00 0.00 0.00 98 1013.2
20260902110700 79 0 0.0 2.0 0.00 0.00 0.00 98 1013.2
20260902110558 79 223 0.0 2.0 0.00 0.00 0.00 98 1013.1
20260902110522 79 174 0.0 2.0 0.00 0.00 0.00 98 1013.1
20260902110456 79 0 0.0 2.0 0.00 0.00 0.00 98 1013.1
20260902110356 79 0 0.0 2.0 0.00 0.00 0.00 98 1013.1
20260902110253 79 0 0.0 2.0 0.00 0.00 0.00 98 1013.1
20260902110151 79 229 0.0 2.0 0.00 0.00 0.00 98 1013.1
20260902110051 79 352 0.0 2.0 0.00 0.00 0.00 98 1013.1
20260902110022 79 278 0.0 2.0 0.00 0.00 0.00 98 1013.1
20260902105951 79 256 0.0 2.0 0.00 0.00 0.00 98 1013.1
20260902105850 79 278 0.0 2.0 0.00 0.00 0.00 98 1013.1
20260902105748 79 246 0.0 2.0 0.00 0.00 0.00 98 1013.1
20260902105648 79 254 0.0 1.0 0.00 0.00 0.00 98 1013.1
20260902105544 79 354 0.0 1.0 0.00 0.00 0.00 98 1013.2
20260902105520 79 319 0.0 1.0 0.00 0.00 0.00 98 1013.2
20260902105445 79 328 0.0 1.0 0.00 0.00 0.00 98 1013.2
20260902105342 79 273 0.0 1.0 0.00 0.00 0.00 98 1013.2
20260902105238 79 0 0.0 1.0 0.00 0.00 0.00 98 1013.2
20260902105139 79 0 0.0 1.0 0.00 0.00 0.00 98 1013.2
20260902105036 79 50 0.0 1.0 0.00 0.00 0.00 98 1013.2
20260902105020 79 66 0.0 1.0 0.00 0.00 0.00 98 1013.2
20260902104936 79 0 0.0 1.0 0.00 0.00 0.00 98 1013.2
20260902104836 79 109 0.0 1.0 0.00 0.00 0.00 98 1013.2
20260902104741 79 0 0.0 1.0 0.00 0.00 0.00 98 1013.2
20260902104733 79 127 0.0 1.0 0.00 0.00 0.00 98 1013.2
20260902104633 79 0 0.0 1.0 0.00 0.00 0.00 98 1013.2
20260902104619 79 0 0.0 1.0 0.00 0.00 0.00 98 1013.2
20260902104429 79 0 0.0 1.0 0.00 0.00 0.00 98 1013.2
20260902104328 79 283 0.0 1.0 0.00 0.00 0.00 98 1013.2
20260902104238 79 282 0.0 1.0 0.00 0.00 0.00 97 1013.2
20260902104227 79 0 0.0 1.0 0.00 0.00 0.00 98 1013.2
20260902104124 79 0 0.0 1.0 0.00 0.00 0.00 97 1013.2
20260902104113 79 265 0.0 1.0 0.00 0.00 0.00 97 1013.2
20260902103920 79 0 0.0 1.0 0.00 0.00 0.00 97 1013.2
20260902103818 79 285 0.0 1.0 0.00 0.00 0.00 97 1013.2
20260902103717 79 0 0.0 1.0 0.00 0.00 0.00 97 1013.2
20260902103616 79 285 0.0 1.0 0.00 0.00 0.00 97 1013.2
20260902103508 79 223 0.0 1.0 0.00 0.00 0.00 97 1013.2
20260902103413 79 0 0.0 1.0 0.00 0.00 0.00 97 1013.2
20260902103312 79 33 0.0 1.0 0.00 0.00 0.00 97 1013.2
20260902103231 79 134 0.0 2.0 0.00 0.00 0.00 97 1013.1
20260902103212 79 0 0.0 1.0 0.00 0.00 0.00 97 1013.1
20260902103119 79 0 0.0 1.0 0.00 0.00 0.00 97 1013.1
20260902103113 79 134 0.0 2.0 0.00 0.00 0.00 97 1013.1
20260902102909 79 0 0.0 2.0 0.00 0.00 0.00 97 1013.1
20260902102803 79 23 0.0 2.0 0.00 0.00 0.00 97 1013.1
20260902102654 79 0 0.0 2.0 0.00 0.00 0.00 97 1013.1
20260902102555 79 205 0.0 2.0 0.00 0.00 0.00 97 1013.1
20260902102507 79 0 0.0 2.0 0.00 0.00 0.00 97 1013.1
20260902102451 79 180 0.0 2.0 0.00 0.00 0.00 97 1013.0
20260902102351 79 289 0.0 2.0 0.00 0.00 0.00 97 1013.0
20260902102249 79 90 0.0 2.0 0.00 0.00 0.00 97 1013.0
20260902102148 79 298 0.0 2.0 0.00 0.00 0.00 97 1013.0
20260902102049 79 298 0.0 2.0 0.00 0.00 0.00 97 1013.0
20260902102005 79 292 0.0 2.0 0.00 0.00 0.00 97 1013.0
20260902101948 79 312 0.0 2.0 0.00 0.00 0.00 97 1013.0
20260902101843 79 304 0.0 2.0 0.00 0.00 0.00 97 1013.0
20260902101743 79 259 0.0 2.0 0.00 0.00 0.00 97 1013.0
20260902101724 79 311 0.0 2.0 0.00 0.00 0.00 97 1013.0
20260902101642 79 264 0.0 2.0 0.00 0.00 0.00 97 1013.0
20260902101611 79 292 0.0 2.0 0.00 0.00 0.00 97 1013.0
20260902101439 79 309 0.0 2.0 0.00 0.00 0.00 97 1013.0
20260902101339 79 261 0.0 2.0 0.00 0.00 0.00 97 1013.0
20260902101239 79 261 0.0 2.0 0.00 0.00 0.00 97 1013.0
20260902101136 79 27 0.0 2.0 0.00 0.00 0.00 97 1013.0
20260902101033 79 0 0.0 2.0 0.00 0.00 0.00 97 1013.0
20260902101005 79 242 1.0 2.0 0.00 0.00 0.00 97 1013.0
20260902100933 79 266 0.0 2.0 0.00 0.00 0.00 97 1013.0
20260902100834 79 289 0.0 2.0 0.00 0.00 0.00 97 1013.0
20260902100731 79 241 1.0 2.0 0.00 0.00 0.00 97 1013.0
20260902100628 79 290 1.0 2.0 0.00 0.00 0.00 97 1013.0
20260902100524 79 296 0.0 2.0 0.00 0.00 0.00 97 1013.0
20260902100505 79 281 0.0 2.0 0.00 0.00 0.00 97 1013.0
20260902100425 79 192 1.0 2.0 0.00 0.00 0.00 97 1013.0
20260902100325 79 246 1.0 2.0 0.00 0.00 0.00 97 1013.0
20260902100222 79 0 0.0 2.0 0.00 0.00 0.00 97 1013.0
20260902100119 79 206 0.0 2.0 0.00 0.00 0.00 97 1013.0
20260902100019 79 231 0.0 2.0 0.00 0.00 0.00 97 1012.9
20260902100003 79 336 0.0 2.0 0.00 0.00 0.00 97 1012.9
20260902095918 79 0 0.0 2.0 0.00 0.00 0.00 97 1012.9
20260902095813 79 304 0.0 2.0 0.00 0.00 0.00 97 1012.9
20260902095717 79 253 0.0 2.0 0.00 0.00 0.00 97 1012.9
20260902095713 79 256 0.0 2.0 0.00 0.00 0.00 97 1012.9
20260902095612 79 60 0.0 2.0 0.00 0.00 0.00 97 1012.9
20260902095603 79 308 0.0 2.0 0.00 0.00 0.00 97 1012.9
20260902095407 79 171 0.0 1.0 0.00 0.00 0.00 97 1012.9
20260902095306 79 294 0.0 2.0 0.00 0.00 0.00 97 1012.9
20260902095204 79 240 0.0 2.0 0.00 0.00 0.00 97 1012.9
20260902095100 79 0 0.0 2.0 0.00 0.00 0.00 97 1012.9
20260902095003 79 299 0.0 2.0 0.00 0.00 0.00 97 1012.9
20260902094957 80 299 0.0 2.0 0.00 0.00 0.00 97 1012.9
20260902094901 80 222 0.0 2.0 0.00 0.00 0.00 97 1012.9
20260902094800 80 286 0.0 2.0 0.00 0.00 0.00 96 1012.9
20260902094659 80 308 0.0 2.0 0.00 0.00 0.00 96 1012.9
20260902094559 80 266 1.0 2.0 0.00 0.00 0.00 97 1012.9
20260902094459 80 286 0.0 2.0 0.00 0.00 0.00 97 1012.9
20260902094359 80 251 0.0 2.0 0.00 0.00 0.00 96 1012.9
20260902094255 80 281 0.0 2.0 0.00 0.00 0.00 96 1012.9
20260902094155 80 292 0.0 2.0 0.00 0.00 0.00 96 1012.9
20260902094052 80 0 0.0 2.0 0.00 0.00 0.00 96 1012.9
20260902093957 80 33 0.0 2.0 0.00 0.00 0.00 96 1012.9
20260902093949 80 0 0.0 2.0 0.00 0.00 0.00 96 1012.9
20260902093849 80 184 0.0 2.0 0.00 0.00 0.00 96 1012.9
20260902093749 80 263 0.0 2.0 0.00 0.00 0.00 96 1012.9
20260902093648 80 301 1.0 2.0 0.00 0.00 0.00 96 1012.9
20260902093548 80 0 0.0 2.0 0.00 0.00 0.00 96 1012.9
20260902093458 80 0 0.0 2.0 0.00 0.00 0.00 96 1012.9
20260902093449 80 293 0.0 2.0 0.00 0.00 0.00 96 1012.9
20260902093350 80 267 0.0 2.0 0.00 0.00 0.00 96 1012.9
20260902093249 80 300 0.0 2.0 0.00 0.00 0.00 96 1012.9
20260902093146 80 27 0.0 2.0 0.00 0.00 0.00 96 1013.0
20260902093043 80 0 0.0 2.0 0.00 0.00 0.00 96 1013.0
20260902092958 80 0 0.0 2.0 0.00 0.00 0.00 96 1013.0
20260902092940 80 271 0.0 2.0 0.00 0.00 0.00 96 1013.0
20260902092838 80 271 0.0 2.0 0.00 0.00 0.00 96 1013.0
20260902092734 80 235 0.0 2.0 0.00 0.00 0.00 96 1013.0
20260902092635 80 354 0.0 2.0 0.00 0.00 0.00 96 1013.0
20260902092527 80 294 0.0 2.0 0.00 0.00 0.00 96 1013.0
20260902092457 80 0 0.0 2.0 0.00 0.00 0.00 96 1013.0
20260902092429 80 351 0.0 2.0 0.00 0.00 0.00 96 1013.0
20260902092328 80 282 0.0 2.0 0.00 0.00 0.00 96 1013.0
20260902092228 80 0 0.0 2.0 0.00 0.00 0.00 96 1013.0
20260902092128 80 265 0.0 2.0 0.00 0.00 0.00 96 1013.0
20260902092025 80 287 0.0 2.0 0.00 0.00 0.00 96 1013.0
20260902091958 80 259 0.0 2.0 0.00 0.00 0.00 96 1012.9
20260902091922 80 297 0.0 2.0 0.00 0.00 0.00 96 1012.9
20260902091822 80 257 0.0 1.0 0.00 0.00 0.00 96 1012.9
20260902091726 80 281 0.0 1.0 0.00 0.00 0.00 96 1012.9
20260902091722 80 0 0.0 1.0 0.00 0.00 0.00 96 1012.9
20260902091622 80 0 0.0 1.0 0.00 0.00 0.00 96 1012.9
20260902091604 80 349 0.0 1.0 0.00 0.00 0.00 96 1012.9
20260902091422 80 330 0.0 1.0 0.00 0.00 0.00 96 1012.9
20260902091323 80 275 0.0 1.0 0.00 0.00 0.00 96 1012.9
20260902091222 80 269 0.0 2.0 0.00 0.00 0.00 96 1012.9
20260902091120 80 222 0.0 2.0 0.00 0.00 0.00 95 1012.9
20260902091017 80 214 0.0 2.0 0.00 0.00 0.00 95 1012.9
20260902090958 80 0 0.0 2.0 0.00 0.00 0.00 95 1012.9
20260902090917 80 0 0.0 3.0 0.00 0.00 0.00 95 1012.9
20260902090810 80 0 0.0 3.0 0.00 0.00 0.00 95 1012.9
20260902090711 80 302 0.0 3.0 0.00 0.00 0.00 95 1012.9
20260902090610 80 274 0.0 3.0 0.00 0.00 0.00 95 1012.9
20260902090511 80 350 0.0 3.0 0.00 0.00 0.00 95 1012.9
20260902090458 80 223 0.0 3.0 0.00 0.00 0.00 95 1012.8
20260902090410 80 358 0.0 3.0 0.00 0.00 0.00 95 1012.8
20260902090310 80 0 0.0 3.0 0.00 0.00 0.00 95 1012.8
20260902090202 80 270 0.0 3.0 0.00 0.00 0.00 95 1012.8
20260902090101 80 0 0.0 3.0 0.00 0.00 0.00 95 1012.8
20260902090001 80 235 0.0 3.0 0.00 0.00 0.00 95 1012.8
20260902085956 80 210 0.0 3.0 0.00 0.00 0.00 95 1012.8
20260902085901 80 0 1.0 2.0 0.00 0.00 0.00 95 1012.8
20260902085802 80 0 1.0 2.0 0.00 0.00 0.00 95 1012.8
20260902085702 80 193 1.0 2.0 0.00 0.00 0.00 95 1012.8
20260902085600 80 48 1.0 2.0 0.00 0.00 0.00 95 1012.8
20260902085458 80 267 1.0 3.0 0.00 0.00 0.00 95 1012.8
20260902085451 80 262 1.0 3.0 0.00 0.00 0.00 95 1012.8
20260902085359 80 204 1.0 3.0 0.00 0.00 0.00 95 1012.8
20260902085256 80 279 1.0 3.0 0.00 0.00 0.00 95 1012.8
20260902085153 80 270 1.0 3.0 0.00 0.00 0.00 95 1012.8
20260902085050 80 265 1.0 3.0 0.00 0.00 0.00 95 1012.8
20260902084950 80 252 1.0 3.0 0.00 0.00 0.00 95 1012.9
20260902084847 80 290 0.0 3.0 0.00 0.00 0.00 95 1012.9
20260902084747 80 303 0.0 3.0 0.00 0.00 0.00 95 1012.9
20260902084647 80 3 0.0 3.0 0.00 0.00 0.00 95 1012.9
20260902084544 80 98 1.0 3.0 0.00 0.00 0.00 95 1012.9
20260902084448 80 229 1.0 3.0 0.00 0.00 0.00 95 1012.9
20260902084443 80 226 1.0 3.0 0.00 0.00 0.00 95 1012.9
20260902084343 80 298 1.0 2.0 0.00 0.00 0.00 95 1012.8
20260902084241 80 260 1.0 3.0 0.00 0.00 0.00 95 1012.8
20260902084137 80 0 1.0 3.0 0.00 0.00 0.00 95 1012.8
20260902084037 80 256 1.0 4.0 0.00 0.00 0.00 95 1012.8
20260902083948 80 300 1.0 4.0 0.00 0.00 0.00 95 1012.8
20260902083932 80 281 1.0 4.0 0.00 0.00 0.00 95 1012.8
20260902083832 80 0 1.0 4.0 0.00 0.00 0.00 95 1012.8
20260902083729 80 279 1.0 4.0 0.00 0.00 0.00 95 1012.8
20260902083629 80 255 1.0 4.0 0.00 0.00 0.00 95 1012.8
20260902083529 80 259 1.0 4.0 0.00 0.00 0.00 95 1012.8
20260902083429 80 0 1.0 4.0 0.00 0.00 0.00 95 1012.8
20260902083329 80 246 1.0 4.0 0.00 0.00 0.00 95 1012.9
20260902083226 80 283 1.0 4.0 0.00 0.00 0.00 94 1012.9
20260902083126 80 240 1.0 4.0 0.00 0.00 0.00 94 1012.9
20260902083026 80 263 1.0 3.0 0.00 0.00 0.00 94 1012.9
20260902082945 80 281 1.0 3.0 0.00 0.00 0.00 94 1012.9
20260902082926 80 270 1.0 3.0 0.00 0.00 0.00 94 1012.9
20260902082823 80 226 1.0 3.0 0.00 0.00 0.00 94 1012.9
20260902082720 80 267 1.0 3.0 0.00 0.00 0.00 94 1012.9
20260902082619 80 239 1.0 3.0 0.00 0.00 0.00 94 1012.9
20260902082517 80 252 1.0 3.0 0.00 0.00 0.00 94 1012.9
20260902082445 80 226 1.0 3.0 0.00 0.00 0.00 94 1013.0
20260902082440 80 257 1.0 3.0 0.00 0.00 0.00 95 1013.0
20260902082417 80 0 1.0 3.0 0.00 0.00 0.00 94 1013.0
20260902082318 80 247 1.0 3.0 0.00 0.00 0.00 94 1013.0
20260902082312 80 251 1.0 3.0 0.00 0.00 0.00 94 1013.0
20260902082118 80 259 1.0 3.0 0.00 0.00 0.00 94 1013.0
20260902082049 80 0 1.0 3.0 0.00 0.00 0.00 94 1013.0
20260902081918 80 287 1.0 3.0 0.00 0.00 0.00 95 1013.0
20260902081812 80 234 1.0 3.0 0.00 0.00 0.00 95 1013.0
20260902081712 80 284 1.0 3.0 0.00 0.00 0.00 95 1013.0
20260902081705 80 269 1.0 2.0 0.00 0.00 0.00 95 1013.0
20260902081611 80 168 1.0 2.0 0.00 0.00 0.00 95 1013.0
20260902081549 80 293 1.0 2.0 0.00 0.00 0.00 95 1013.0
20260902081408 80 296 1.0 2.0 0.00 0.00 0.00 95 1013.0
20260902081305 80 251 1.0 2.0 0.00 0.00 0.00 95 1013.0
20260902081205 80 8 1.0 2.0 0.00 0.00 0.00 95 1013.0
20260902081105 80 302 1.0 2.0 0.00 0.00 0.00 95 1013.0
20260902081005 80 249 1.0 2.0 0.00 0.00 0.00 95 1013.0
20260902080943 80 0 1.0 2.0 0.00 0.00 0.00 95 1013.0
20260902080905 80 336 1.0 2.0 0.00 0.00 0.00 95 1013.0
20260902080810 80 0 1.0 2.0 0.00 0.00 0.00 95 1013.0
20260902080705 80 276 1.0 2.0 0.00 0.00 0.00 95 1013.0
20260902080605 80 0 1.0 2.0 0.00 0.00 0.00 95 1013.0
20260902080500 80 227 1.0 3.0 0.00 0.00 0.00 95 1013.0
20260902080443 80 0 1.0 3.0 0.00 0.00 0.00 95 1013.0
20260902080400 80 157 1.0 3.0 0.00 0.00 0.00 95 1013.1
20260902080002 80 172 1.0 3.0 0.00 0.00 0.00 95 1013.1
20260902075945 80 329 1.0 3.0 0.00 0.00 0.00 95 1013.1
20260902075913 80 272 1.0 3.0 0.00 0.00 0.00 95 1013.1
20260902075753 80 218 1.0 3.0 0.00 0.00 0.00 95 1013.0
20260902075654 80 0 1.0 3.0 0.00 0.00 0.00 95 1013.1
20260902075551 80 281 1.0 3.0 0.00 0.00 0.00 95 1013.1
20260902075448 80 168 1.0 3.0 0.00 0.00 0.00 95 1013.1
20260902075440 80 226 1.0 3.0 0.00 0.00 0.00 95 1013.1
20260902075348 80 316 1.0 3.0 0.00 0.00 0.00 95 1013.1
20260902075236 80 315 1.0 3.0 0.00 0.00 0.00 95 1013.1
20260902075133 80 231 1.0 3.0 0.00 0.00 0.00 95 1013.1
20260902075032 80 190 1.0 2.0 0.00 0.00 0.00 95 1013.1
20260902074938 80 245 1.0 2.0 0.00 0.00 0.00 95 1013.1
20260902074933 80 241 1.0 2.0 0.00 0.00 0.00 95 1013.1
20260902074829 80 267 1.0 2.0 0.00 0.00 0.00 95 1013.1
20260902074729 80 280 1.0 2.0 0.00 0.00 0.00 95 1013.1
20260902074629 80 191 1.0 2.0 0.00 0.00 0.00 95 1013.1
20260902074526 80 239 1.0 2.0 0.00 0.00 0.00 95 1013.1
20260902074438 80 0 1.0 3.0 0.00 0.00 0.00 95 1013.0
20260902074424 80 182 1.0 3.0 0.00 0.00 0.00 95 1013.0
20260902074324 80 66 1.0 4.0 0.00 0.00 0.00 95 1013.1
20260902074224 80 260 1.0 4.0 0.00 0.00 0.00 95 1013.0
20260902074200 80 246 1.0 4.0 0.00 0.00 0.00 95 1013.0
20260902074124 80 331 1.0 4.0 0.00 0.00 0.00 95 1013.0
20260902074041 80 270 1.0 4.0 0.00 0.00 0.00 95 1013.0
20260902073922 80 294 1.0 4.0 0.00 0.00 0.00 95 1013.0
20260902073821 80 318 1.0 4.0 0.00 0.00 0.00 95 1013.0
20260902073718 80 270 1.0 4.0 0.00 0.00 0.00 95 1013.0
20260902073615 80 44 1.0 4.0 0.00 0.00 0.00 95 1013.0
20260902073515 80 308 1.0 4.0 0.00 0.00 0.00 95 1013.0
20260902073435 80 31 1.0 4.0 0.00 0.00 0.00 95 1013.0
20260902073410 80 225 1.0 4.0 0.00 0.00 0.00 95 1013.0
20260902073308 80 275 1.0 3.0 0.00 0.00 0.00 96 1013.0
20260902073208 79 235 1.0 3.0 0.00 0.00 0.00 96 1013.1
20260902073109 79 320 1.0 3.0 0.00 0.00 0.00 96 1013.1
20260902073010 79 198 1.0 3.0 0.00 0.00 0.00 96 1013.1
20260902072935 79 266 1.0 3.0 0.00 0.00 0.00 96 1013.1
20260902072910 79 243 1.0 3.0 0.00 0.00 0.00 96 1013.1
20260902072809 79 311 1.0 3.0 0.00 0.00 0.00 96 1013.1
20260902072709 79 178 1.0 3.0 0.00 0.00 0.00 96 1013.1
20260902072606 79 254 1.0 3.0 0.00 0.00 0.00 96 1013.1
20260902072506 79 216 1.0 2.0 0.00 0.00 0.00 96 1013.1
20260902072435 79 210 1.0 2.0 0.00 0.00 0.00 96 1013.1
20260902072407 79 98 1.0 2.0 0.00 0.00 0.00 96 1013.1
20260902072309 79 293 1.0 2.0 0.00 0.00 0.00 97 1013.2
20260902072207 79 327 1.0 2.0 0.00 0.00 0.00 97 1013.2
20260902072156 79 359 1.0 2.0 0.00 0.00 0.00 97 1013.2
20260902072106 79 137 1.0 2.0 0.00 0.00 0.00 97 1013.2
20260902072040 79 292 1.0 2.0 0.00 0.00 0.00 97 1013.2
20260902071906 79 0 1.0 2.0 0.00 0.00 0.00 97 1013.2
20260902071807 79 125 1.0 2.0 0.00 0.00 0.00 97 1013.2
20260902071707 79 157 1.0 3.0 0.00 0.00 0.00 97 1013.2
20260902071607 79 307 1.0 3.0 0.00 0.00 0.00 97 1013.2
20260902071507 79 0 1.0 3.0 0.00 0.00 0.00 97 1013.2
20260902071435 79 322 1.0 3.0 0.00 0.00 0.00 97 1013.2
20260902071405 79 296 1.0 3.0 0.00 0.00 0.00 97 1013.2
20260902071305 79 284 1.0 3.0 0.00 0.00 0.00 97 1013.2
20260902071206 79 202 1.0 3.0 0.00 0.00 0.00 97 1013.2
20260902071107 79 267 1.0 3.0 0.00 0.00 0.00 97 1013.2
20260902071006 79 16 1.0 3.0 0.00 0.00 0.00 97 1013.2
20260902070935 79 264 1.0 3.0 0.00 0.00 0.00 97 1013.2
20260902070906 79 315 1.0 3.0 0.00 0.00 0.00 97 1013.2
20260902070806 79 140 1.0 3.0 0.00 0.00 0.00 97 1013.2
20260902070703 79 230 1.0 3.0 0.00 0.00 0.00 97 1013.1
20260902070604 79 310 1.0 2.0 0.00 0.00 0.00 97 1013.1
20260902070504 79 262 0.0 2.0 0.00 0.00 0.00 97 1013.1
20260902070435 79 287 1.0 2.0 0.00 0.00 0.00 97 1013.1
20260902070408 79 0 1.0 2.0 0.00 0.00 0.00 97 1013.1
20260902070302 79 181 1.0 2.0 0.00 0.00 0.00 98 1013.1
20260902070206 78 244 1.0 2.0 0.00 0.00 0.00 97 1013.1
20260902065958 78 280 0.0 2.0 0.00 0.00 0.00 97 1013.1
20260902065935 78 310 0.0 2.0 0.00 0.00 0.00 97 1013.1
20260902065857 78 271 0.0 2.0 0.00 0.00 0.00 98 1013.1
20260902065757 78 291 0.0 2.0 0.00 0.00 0.00 98 1013.1
20260902065659 78 186 0.0 2.0 0.00 0.00 0.00 98 1013.0
20260902065655 78 339 0.0 2.0 0.00 0.00 0.00 98 1013.1
20260902065554 78 56 0.0 2.0 0.00 0.00 0.00 98 1013.0
20260902065541 78 209 0.0 2.0 0.00 0.00 0.00 98 1013.0
20260902065349 78 277 0.0 2.0 0.00 0.00 0.00 98 1013.0
20260902065243 78 292 0.0 2.0 0.00 0.00 0.00 98 1013.0
20260902065143 78 178 0.0 2.0 0.00 0.00 0.00 98 1013.0
20260902065039 78 0 0.0 2.0 0.00 0.00 0.00 98 1013.0
20260902064939 78 0 0.0 2.0 0.00 0.00 0.00 98 1013.0
20260902064932 78 306 0.0 2.0 0.00 0.00 0.00 98 1013.0
20260902064839 78 0 0.0 2.0 0.00 0.00 0.00 98 1013.0
20260902064737 78 269 0.0 2.0 0.00 0.00 0.00 98 1013.0
20260902064636 78 284 0.0 2.0 0.00 0.00 0.00 98 1013.1
20260902064536 78 43 0.0 2.0 0.00 0.00 0.00 98 1013.1
20260902064433 78 195 0.0 2.0 0.00 0.00 0.00 98 1013.1
20260902064333 78 0 0.0 2.0 0.00 0.00 0.00 98 1013.1
20260902064233 78 288 1.0 2.0 0.00 0.00 0.00 98 1013.1
20260902064152 78 257 0.0 2.0 0.00 0.00 0.00 98 1013.1
20260902064133 78 285 0.0 2.0 0.00 0.00 0.00 98 1013.1
20260902064038 78 299 0.0 2.0 0.00 0.00 0.00 98 1013.1
20260902063928 78 277 0.0 2.0 0.00 0.00 0.00 98 1013.1
20260902063828 78 275 0.0 2.0 0.00 0.00 0.00 98 1013.1
20260902063727 78 270 0.0 2.0 0.00 0.00 0.00 98 1013.1
20260902063627 78 266 0.0 2.0 0.00 0.00 0.00 98 1013.1
20260902063519 78 0 0.0 2.0 0.00 0.00 0.00 98 1013.1
20260902063429 78 248 0.0 2.0 0.00 0.00 0.00 98 1013.1
20260902063416 78 292 0.0 2.0 0.00 0.00 0.00 98 1013.1
20260902063313 78 333 0.0 2.0 0.00 0.00 0.00 98 1013.1
20260902063213 78 0 0.0 2.0 0.00 0.00 0.00 98 1013.2
20260902063151 78 296 0.0 2.0 0.00 0.00 0.00 98 1013.2
20260902063109 78 192 0.0 2.0 0.00 0.00 0.00 98 1013.2
20260902063032 78 285 0.0 2.0 0.00 0.00 0.00 98 1013.2
20260902062910 78 240 0.0 2.0 0.00 0.00 0.00 98 1013.2
20260902062809 78 258 0.0 2.0 0.00 0.00 0.00 98 1013.2
20260902062709 78 0 0.0 2.0 0.00 0.00 0.00 98 1013.2
20260902062607 78 304 0.0 2.0 0.00 0.00 0.00 98 1013.2
20260902062508 78 289 0.0 2.0 0.00 0.00 0.00 98 1013.2
20260902062427 78 305 0.0 2.0 0.00 0.00 0.00 98 1013.2
20260902062402 78 324 0.0 2.0 0.00 0.00 0.00 98 1013.2
20260902062305 78 266 0.0 2.0 0.00 0.00 0.00 98 1013.2
20260902062202 78 275 0.0 2.0 0.00 0.00 0.00 98 1013.2
20260902062150 78 257 0.0 2.0 0.00 0.00 0.00 98 1013.2
20260902062102 78 326 0.0 2.0 0.00 0.00 0.00 98 1013.2
20260902062033 78 281 0.0 2.0 0.00 0.00 0.00 98 1013.2
20260902061901 78 0 0.0 2.0 0.00 0.00 0.00 98 1013.2
20260902061752 78 290 0.0 2.0 0.00 0.00 0.00 98 1013.2
20260902061653 78 278 0.0 2.0 0.00 0.00 0.00 97 1013.2
20260902061649 78 286 0.0 2.0 0.00 0.00 0.00 97 1013.2
20260902061549 78 230 1.0 2.0 0.00 0.00 0.00 97 1013.2
20260902061529 78 274 0.0 2.0 0.00 0.00 0.00 97 1013.2
20260902061343 78 0 0.0 2.0 0.00 0.00 0.00 97 1013.1
20260902061240 78 242 0.0 2.0 0.00 0.00 0.00 97 1013.1
20260902061140 78 284 0.0 2.0 0.00 0.00 0.00 97 1013.1
20260902061040 78 0 0.0 2.0 0.00 0.00 0.00 97 1013.0
20260902060938 78 281 1.0 2.0 0.00 0.00 0.00 97 1013.0
20260902060917 78 218 1.0 2.0 0.00 0.00 0.00 97 1013.0
20260902060837 78 304 1.0 2.0 0.00 0.00 0.00 97 1013.0
20260902060731 78 37 1.0 2.0 0.00 0.00 0.00 97 1013.0
20260902060631 78 132 1.0 2.0 0.00 0.00 0.00 97 1013.0
20260902060531 78 214 1.0 2.0 0.00 0.00 0.00 97 1013.0
20260902060431 78 0 1.0 2.0 0.00 0.00 0.00 97 1013.0
20260902060414 78 241 1.0 2.0 0.00 0.00 0.00 97 1013.0
20260902060331 78 275 0.0 2.0 0.00 0.00 0.00 97 1013.0
20260902060231 78 0 0.0 2.0 0.00 0.00 0.00 97 1013.0
20260902060128 78 262 0.0 1.0 0.00 0.00 0.00 97 1013.0
20260902060025 78 252 0.0 1.0 0.00 0.00 0.00 97 1013.0
20260902055925 78 289 0.0 1.0 0.00 0.00 0.00 97 1013.0
20260902055914 78 298 0.0 1.0 0.00 0.00 0.00 97 1013.0
20260902055825 78 281 0.0 1.0 0.00 0.00 0.00 97 1013.0
20260902055725 78 268 0.0 1.0 0.00 0.00 0.00 97 1013.0
20260902055625 78 238 0.0 1.0 0.00 0.00 0.00 97 1013.0
20260902055525 78 254 0.0 1.0 0.00 0.00 0.00 97 1013.0
20260902055425 78 289 0.0 1.0 0.00 0.00 0.00 97 1013.0
20260902055414 78 295 0.0 1.0 0.00 0.00 0.00 97 1013.0
20260902055325 78 288 0.0 1.0 0.00 0.00 0.00 97 1013.1
20260902055222 78 288 0.0 1.0 0.00 0.00 0.00 97 1013.1
20260902055122 78 292 0.0 1.0 0.00 0.00 0.00 96 1013.1
20260902055022 78 295 0.0 1.0 0.00 0.00 0.00 96 1013.1
20260902054922 78 281 0.0 1.0 0.00 0.00 0.00 96 1013.1
20260902054916 78 24 0.0 1.0 0.00 0.00 0.00 96 1013.1
20260902054820 78 230 0.0 1.0 0.00 0.00 0.00 96 1013.1
20260902054719 78 356 0.0 1.0 0.00 0.00 0.00 96 1013.1
20260902054623 78 301 0.0 1.0 0.00 0.00 0.00 96 1013.1
20260902054516 78 0 0.0 1.0 0.00 0.00 0.00 96 1013.1
20260902054413 78 0 0.0 1.0 0.00 0.00 0.00 96 1013.1
20260902054307 78 295 0.0 1.0 0.00 0.00 0.00 96 1013.1
20260902054208 78 319 0.0 1.0 0.00 0.00 0.00 96 1013.1
20260902054107 78 0 0.0 1.0 0.00 0.00 0.00 96 1013.1
20260902054007 78 0 0.0 1.0 0.00 0.00 0.00 96 1013.1
20260902053907 78 0 0.0 1.0 0.00 0.00 0.00 96 1013.1
20260902053808 78 317 0.0 1.0 0.00 0.00 0.00 96 1013.1
20260902053707 78 0 0.0 1.0 0.00 0.00 0.00 96 1013.1
20260902053608 78 8 0.0 1.0 0.00 0.00 0.00 96 1013.1
20260902053507 78 28 0.0 1.0 0.00 0.00 0.00 96 1013.1
20260902053407 78 0 0.0 1.0 0.00 0.00 0.00 96 1013.1
20260902053304 78 6 0.0 1.0 0.00 0.00 0.00 96 1013.1
20260902053203 78 0 0.0 1.0 0.00 0.00 0.00 95 1013.1
20260902053058 78 0 0.0 1.0 0.00 0.00 0.00 95 1013.1
20260902052958 78 0 0.0 1.0 0.00 0.00 0.00 95 1013.2
20260902052903 78 0 0.0 1.0 0.00 0.00 0.00 95 1013.2
20260902052858 78 329 0.0 1.0 0.00 0.00 0.00 95 1013.2
20260902052759 78 320 0.0 1.0 0.00 0.00 0.00 95 1013.2
20260902052659 78 180 0.0 1.0 0.00 0.00 0.00 95 1013.2
20260902052559 78 0 0.0 1.0 0.00 0.00 0.00 95 1013.2
20260902052459 78 0 0.0 1.0 0.00 0.00 0.00 95 1013.2
20260902052403 78 0 0.0 1.0 0.00 0.00 0.00 95 1013.2
20260902052359 78 0 0.0 1.0 0.00 0.00 0.00 95 1013.2
20260902052249 78 0 0.0 1.0 0.00 0.00 0.00 95 1013.1
20260902052149 78 0 0.0 1.0 0.00 0.00 0.00 95 1013.1
20260902052049 78 341 0.0 1.0 0.00 0.00 0.00 95 1013.1
20260902051949 78 0 0.0 1.0 0.00 0.00 0.00 95 1013.2
20260902051900 79 352 0.0 1.0 0.00 0.00 0.00 95 1013.2
20260902051849 79 0 0.0 1.0 0.00 0.00 0.00 95 1013.2
20260902051746 79 83 0.0 1.0 0.00 0.00 0.00 95 1013.1
20260902051646 79 0 0.0 1.0 0.00 0.00 0.00 95 1013.1
20260902051541 79 349 0.0 1.0 0.00 0.00 0.00 95 1013.1
20260902051440 79 0 0.0 1.0 0.00 0.00 0.00 95 1013.1
20260902051400 79 199 0.0 1.0 0.00 0.00 0.00 95 1013.1
20260902051340 79 354 0.0 1.0 0.00 0.00 0.00 95 1013.1
20260902051238 79 62 0.0 1.0 0.00 0.00 0.00 95 1013.1
20260902051135 79 46 0.0 1.0 0.00 0.00 0.00 95 1013.1
20260902051035 79 330 0.0 1.0 0.00 0.00 0.00 95 1013.1
20260902050934 79 34 0.0 1.0 0.00 0.00 0.00 95 1013.1
20260902050901 79 35 0.0 1.0 0.00 0.00 0.00 95 1013.1
20260902050834 79 0 0.0 1.0 0.00 0.00 0.00 95 1013.1
20260902050732 79 0 0.0 1.0 0.00 0.00 0.00 95 1013.1
20260902050626 79 286 0.0 1.0 0.00 0.00 0.00 95 1013.2
20260902050526 79 266 0.0 1.0 0.00 0.00 0.00 95 1013.2
20260902050423 79 0 0.0 1.0 0.00 0.00 0.00 95 1013.2
20260902050400 79 268 0.0 1.0 0.00 0.00 0.00 95 1013.2
20260902050323 79 0 0.0 1.0 0.00 0.00 0.00 95 1013.2
20260902050223 79 55 0.0 1.0 0.00 0.00 0.00 95 1013.2
20260902050123 79 0 0.0 1.0 0.00 0.00 0.00 95 1013.2
20260902050019 79 0 0.0 1.0 0.00 0.00 0.00 95 1013.2
20260902045917 79 0 0.0 1.0 0.00 0.00 0.00 95 1013.2
20260902045900 79 0 0.0 1.0 0.00 0.00 0.00 94 1013.1
20260902045814 79 0 0.0 1.0 0.00 0.00 0.00 94 1013.1
20260902045713 79 0 0.0 1.0 0.00 0.00 0.00 94 1013.1
20260902045622 79 280 0.0 2.0 0.00 0.00 0.00 94 1013.2
20260902045613 79 0 0.0 1.0 0.00 0.00 0.00 94 1013.1
20260902045514 79 261 0.0 2.0 0.00 0.00 0.00 94 1013.1
20260902045507 79 10 0.0 2.0 0.00 0.00 0.00 94 1013.2
20260902045311 79 256 0.0 2.0 0.00 0.00 0.00 94 1013.2
20260902045211 79 278 0.0 2.0 0.00 0.00 0.00 94 1013.2
20260902045111 79 255 0.0 2.0 0.00 0.00 0.00 94 1013.2
20260902045011 79 290 0.0 2.0 0.00 0.00 0.00 94 1013.2
20260902044911 79 5 0.0 2.0 0.00 0.00 0.00 94 1013.2
20260902044857 79 0 0.0 2.0 0.00 0.00 0.00 94 1013.2
20260902044811 79 0 0.0 2.0 0.00 0.00 0.00 94 1013.2
20260902044711 79 201 0.0 2.0 0.00 0.00 0.00 94 1013.2
20260902044624 79 0 0.0 1.0 0.00 0.00 0.00 94 1013.2
20260902044611 79 288 0.0 2.0 0.00 0.00 0.00 94 1013.2
20260902044511 79 358 0.0 1.0 0.00 0.00 0.00 94 1013.2
20260902044503 79 281 0.0 1.0 0.00 0.00 0.00 94 1013.2
20260902044312 79 294 0.0 1.0 0.00 0.00 0.00 94 1013.2
20260902044211 79 0 0.0 1.0 0.00 0.00 0.00 94 1013.1
20260902044112 79 272 0.0 1.0 0.00 0.00 0.00 94 1013.1
20260902044012 79 286 0.0 1.0 0.00 0.00 0.00 94 1013.1
20260902043911 79 213 0.0 1.0 0.00 0.00 0.00 95 1013.2
20260902043859 79 199 0.0 1.0 0.00 0.00 0.00 95 1013.2
20260902043811 79 0 0.0 1.0 0.00 0.00 0.00 95 1013.2
20260902043706 78 0 0.0 1.0 0.00 0.00 0.00 95 1013.2
20260902043605 78 0 0.0 1.0 0.00 0.00 0.00 95 1013.2
20260902043456 78 40 0.0 1.0 0.00 0.00 0.00 95 1013.2
20260902043401 78 140 0.0 1.0 0.00 0.00 0.00 95 1013.2
20260902043357 78 223 0.0 1.0 0.00 0.00 0.00 95 1013.2
20260902043257 78 239 0.0 1.0 0.00 0.00 0.00 95 1013.2
20260902043156 78 0 0.0 1.0 0.00 0.00 0.00 95 1013.2
20260902043057 78 301 0.0 1.0 0.00 0.00 0.00 95 1013.2
20260902042954 78 63 0.0 1.0 0.00 0.00 0.00 95 1013.3
20260902042854 78 0 0.0 1.0 0.00 0.00 0.00 95 1013.3
20260902042754 78 0 0.0 1.0 0.00 0.00 0.00 95 1013.3
20260902042654 78 0 0.0 1.0 0.00 0.00 0.00 95 1013.3
20260902042552 78 0 0.0 1.0 0.00 0.00 0.00 95 1013.3
20260902042448 78 303 0.0 1.0 0.00 0.00 0.00 95 1013.3
20260902042352 78 255 0.0 1.0 0.00 0.00 0.00 95 1013.2
20260902042345 78 285 0.0 1.0 0.00 0.00 0.00 95 1013.2
20260902042242 78 297 0.0 1.0 0.00 0.00 0.00 95 1013.2
20260902042142 78 201 0.0 1.0 0.00 0.00 0.00 95 1013.2
20260902042042 78 311 0.0 1.0 0.00 0.00 0.00 95 1013.2
20260902041942 78 0 0.0 1.0 0.00 0.00 0.00 95 1013.2
20260902041852 78 310 0.0 1.0 0.00 0.00 0.00 95 1013.2
20260902041842 78 293 0.0 1.0 0.00 0.00 0.00 95 1013.2
20260902041742 78 0 0.0 1.0 0.00 0.00 0.00 95 1013.2
20260902041642 78 283 0.0 1.0 0.00 0.00 0.00 95 1013.2
20260902041539 78 268 0.0 1.0 0.00 0.00 0.00 95 1013.2
20260902041439 78 293 0.0 1.0 0.00 0.00 0.00 95 1013.2
20260902041353 78 280 0.0 1.0 0.00 0.00 0.00 95 1013.2
20260902041336 78 0 0.0 1.0 0.00 0.00 0.00 95 1013.2
20260902041226 78 300 0.0 1.0 0.00 0.00 0.00 95 1013.2
20260902041120 78 263 0.0 1.0 0.00 0.00 0.00 95 1013.2
20260902041021 78 0 0.0 1.0 0.00 0.00 0.00 94 1013.2
20260902040921 78 296 0.0 1.0 0.00 0.00 0.00 94 1013.2
20260902040849 78 0 0.0 1.0 0.00 0.00 0.00 94 1013.3
20260902040820 78 7 0.0 1.0 0.00 0.00 0.00 94 1013.3
20260902040720 78 0 0.0 1.0 0.00 0.00 0.00 94 1013.3
20260902040620 78 293 0.0 1.0 0.00 0.00 0.00 94 1013.3
20260902040518 78 309 0.0 1.0 0.00 0.00 0.00 94 1013.3
20260902040418 78 191 0.0 1.0 0.00 0.00 0.00 94 1013.3
20260902040344 78 0 0.0 1.0 0.00 0.00 0.00 94 1013.3
20260902040318 78 293 0.0 1.0 0.00 0.00 0.00 94 1013.3
20260902040212 78 0 0.0 1.0 0.00 0.00 0.00 94 1013.3
20260902040109 78 237 0.0 1.0 0.00 0.00 0.00 94 1013.2
20260902040008 78 314 0.0 2.0 0.00 0.00 0.00 94 1013.2
20260902035906 78 295 0.0 2.0 0.00 0.00 0.00 94 1013.2
20260902035832 78 291 0.0 2.0 0.00 0.00 0.00 94 1013.2
20260902035803 78 302 0.0 2.0 0.00 0.00 0.00 94 1013.2
20260902035703 78 0 0.0 2.0 0.00 0.00 0.00 94 1013.2
20260902035601 78 296 0.0 2.0 0.00 0.00 0.00 94 1013.2
20260902035500 78 0 0.0 2.0 0.00 0.00 0.00 94 1013.2
20260902035357 78 274 0.0 2.0 0.00 0.00 0.00 94 1013.2
20260902035331 78 273 0.0 2.0 0.00 0.00 0.00 94 1013.2
20260902035257 78 317 0.0 2.0 0.00 0.00 0.00 94 1013.2
20260902035157 78 304 0.0 2.0 0.00 0.00 0.00 93 1013.2
20260902035050 78 318 0.0 2.0 0.00 0.00 0.00 93 1013.2
20260902034952 78 321 0.0 1.0 0.00 0.00 0.00 93 1013.2
20260902034851 78 350 0.0 1.0 0.00 0.00 0.00 93 1013.2
20260902034829 78 287 0.0 1.0 0.00 0.00 0.00 93 1013.2
20260902034752 78 64 0.0 1.0 0.00 0.00 0.00 93 1013.2
20260902034651 78 0 0.0 1.0 0.00 0.00 0.00 93 1013.2
20260902034551 78 342 0.0 1.0 0.00 0.00 0.00 93 1013.2
20260902034451 78 0 0.0 1.0 0.00 0.00 0.00 93 1013.3
20260902034352 78 295 0.0 1.0 0.00 0.00 0.00 93 1013.3
20260902034329 78 307 0.0 1.0 0.00 0.00 0.00 93 1013.3
20260902034248 78 344 0.0 1.0 0.00 0.00 0.00 93 1013.3
20260902034145 78 225 0.0 1.0 0.00 0.00 0.00 93 1013.3
20260902034054 78 0 0.0 1.0 0.00 0.00 0.00 93 1013.3
20260902034045 78 321 0.0 1.0 0.00 0.00 0.00 93 1013.3
20260902033945 78 0 0.0 1.0 0.00 0.00 0.00 93 1013.3
20260902033934 78 292 0.0 1.0 0.00 0.00 0.00 93 1013.3
20260902033745 78 0 0.0 1.0 0.00 0.00 0.00 93 1013.3
20260902033645 78 318 0.0 1.0 0.00 0.00 0.00 93 1013.3
20260902033545 78 0 0.0 1.0 0.00 0.00 0.00 93 1013.3
20260902033445 78 315 0.0 1.0 0.00 0.00 0.00 93 1013.2
20260902033342 78 355 0.0 1.0 0.00 0.00 0.00 92 1013.2
20260902033329 78 348 0.0 1.0 0.00 0.00 0.00 92 1013.2
20260902033242 78 0 0.0 1.0 0.00 0.00 0.00 92 1013.2
20260902033143 78 332 0.0 2.0 0.00 0.00 0.00 92 1013.2
20260902033043 78 114 0.0 2.0 0.00 0.00 0.00 92 1013.2
20260902032936 78 0 0.0 2.0 0.00 0.00 0.00 92 1013.1
20260902032836 78 16 0.0 2.0 0.00 0.00 0.00 92 1013.1
20260902032828 78 0 0.0 2.0 0.00 0.00 0.00 92 1013.1
20260902032736 78 325 0.0 2.0 0.00 0.00 0.00 92 1013.1
20260902032633 78 314 0.0 2.0 0.00 0.00 0.00 92 1013.1
20260902032550 79 0 0.0 2.0 0.00 0.00 0.00 92 1013.1
20260902032533 78 23 0.0 2.0 0.00 0.00 0.00 92 1013.1
20260902032440 79 0 0.0 2.0 0.00 0.00 0.00 92 1013.1
20260902032434 79 0 0.0 2.0 0.00 0.00 0.00 92 1013.1
20260902032231 79 0 0.0 2.0 0.00 0.00 0.00 92 1013.0
20260902032130 79 285 0.0 2.0 0.00 0.00 0.00 92 1013.0
20260902032030 79 345 0.0 2.0 0.00 0.00 0.00 92 1013.0
20260902031930 79 0 0.0 2.0 0.00 0.00 0.00 92 1013.0
20260902031832 79 344 0.0 2.0 0.00 0.00 0.00 92 1013.0
20260902031827 79 23 0.0 2.0 0.00 0.00 0.00 92 1013.0
20260902031731 79 347 0.0 2.0 0.00 0.00 0.00 92 1013.0
20260902031631 79 309 0.0 2.0 0.00 0.00 0.00 92 1012.9
20260902031530 79 265 0.0 1.0 0.00 0.00 0.00 92 1012.9
20260902031428 79 182 0.0 1.0 0.00 0.00 0.00 92 1012.9
20260902031328 79 0 0.0 1.0 0.00 0.00 0.00 92 1012.9
20260902031228 79 278 0.0 1.0 0.00 0.00 0.00 92 1012.9
20260902031125 79 296 0.0 1.0 0.00 0.00 0.00 92 1012.8
20260902031024 79 304 0.0 1.0 0.00 0.00 0.00 91 1012.8
20260902030918 79 310 0.0 1.0 0.00 0.00 0.00 91 1012.8
20260902030826 79 0 0.0 1.0 0.00 0.00 0.00 91 1012.8
20260902030818 79 325 0.0 1.0 0.00 0.00 0.00 91 1012.8
20260902030718 79 230 0.0 1.0 0.00 0.00 0.00 91 1012.8
20260902030618 79 0 0.0 1.0 0.00 0.00 0.00 91 1012.8
20260902030518 79 327 0.0 1.0 0.00 0.00 0.00 91 1012.8
20260902030416 79 309 0.0 1.0 0.00 0.00 0.00 91 1012.7
20260902030323 79 0 0.0 1.0 0.00 0.00 0.00 91 1012.7
20260902030313 79 298 0.0 1.0 0.00 0.00 0.00 91 1012.7
20260902030213 79 0 0.0 2.0 0.00 0.00 0.00 91 1012.7
20260902030113 79 0 0.0 2.0 0.00 0.00 0.00 91 1012.7
20260902030012 79 0 0.0 2.0 0.00 0.00 0.00 91 1012.7
20260902025910 79 345 0.0 2.0 0.00 0.00 0.00 90 1012.7
20260902025839 79 306 0.0 2.0 0.00 0.00 0.00 90 1012.7
20260902025826 79 280 0.0 2.0 0.00 0.00 0.00 90 1012.7
20260902025704 79 251 0.0 2.0 0.00 0.00 0.00 90 1012.7
20260902025600 79 254 0.0 2.0 0.00 0.00 0.00 90 1012.7
20260902025500 79 352 0.0 2.0 0.00 0.00 0.00 90 1012.7
20260902025400 79 0 0.0 2.0 0.00 0.00 0.00 90 1012.7
20260902025312 79 18 0.0 2.0 0.00 0.00 0.00 90 1012.7
20260902025255 79 333 0.0 2.0 0.00 0.00 0.00 90 1012.6
20260902025152 80 0 0.0 2.0 0.00 0.00 0.00 90 1012.6
20260902025052 80 297 0.0 2.0 0.00 0.00 0.00 90 1012.6
20260902025033 80 217 0.0 2.0 0.00 0.00 0.00 89 1012.5
20260902024949 80 293 0.0 2.0 0.00 0.00 0.00 90 1012.6
20260902024917 80 302 0.0 2.0 0.00 0.00 0.00 89 1012.5
20260902024746 80 0 0.0 2.0 0.00 0.00 0.00 89 1012.5
20260902024643 80 318 0.0 2.0 0.00 0.00 0.00 89 1012.4
20260902024543 80 354 0.0 2.0 0.00 0.00 0.00 89 1012.4
20260902024443 80 25 0.0 2.0 0.00 0.00 0.00 89 1012.4
20260902024340 80 258 0.0 2.0 0.00 0.00 0.00 89 1012.4
20260902024309 80 327 0.0 2.0 0.00 0.00 0.00 89 1012.4
20260902024238 80 26 0.0 2.0 0.00 0.00 0.00 89 1012.4
20260902024137 80 286 0.0 2.0 0.00 0.00 0.00 89 1012.4
20260902024040 80 288 0.0 1.0 0.00 0.00 0.00 89 1012.4
20260902024034 80 356 0.0 1.0 0.00 0.00 0.00 89 1012.4
20260902023938 80 329 0.0 1.0 0.00 0.00 0.00 89 1012.4
20260902023915 80 291 0.0 1.0 0.00 0.00 0.00 89 1012.4
20260902023734 80 334 0.0 1.0 0.00 0.00 0.00 89 1012.3
20260902023628 80 299 0.0 1.0 0.00 0.00 0.00 89 1012.3
20260902023534 80 7 0.0 2.0 0.00 0.00 0.00 89 1012.3
20260902023529 80 288 0.0 2.0 0.00 0.00 0.00 89 1012.3
20260902023429 80 17 0.0 2.0 0.00 0.00 0.00 89 1012.3
20260902023414 80 25 0.0 2.0 0.00 0.00 0.00 89 1012.3
20260902023228 80 343 0.0 2.0 0.00 0.00 0.00 89 1012.2
20260902023123 80 306 0.0 2.0 0.00 0.00 0.00 89 1012.2
20260902023022 80 0 0.0 2.0 0.00 0.00 0.00 88 1012.2
20260902022919 80 283 0.0 2.0 0.00 0.00 0.00 88 1012.2
20260902022819 80 326 0.0 2.0 0.00 0.00 0.00 88 1012.2
20260902022809 80 325 0.0 2.0 0.00 0.00 0.00 88 1012.2
20260902022719 80 0 0.0 2.0 0.00 0.00 0.00 88 1012.2
20260902022617 80 292 0.0 2.0 0.00 0.00 0.00 88 1012.2
20260902022518 80 288 0.0 2.0 0.00 0.00 0.00 88 1012.2
20260902022416 80 0 0.0 2.0 0.00 0.00 0.00 88 1012.2
20260902022309 80 316 0.0 2.0 0.00 0.00 0.00 88 1012.2
20260902022216 80 0 0.0 2.0 0.00 0.00 0.00 88 1012.2
20260902022116 80 0 0.0 2.0 0.00 0.00 0.00 88 1012.2
20260902022016 80 91 0.0 2.0 0.00 0.00 0.00 88 1012.2
20260902021914 80 0 0.0 1.0 0.00 0.00 0.00 87 1012.3
20260902021805 80 0 0.0 1.0 0.00 0.00 0.00 87 1012.3
20260902021714 80 225 0.0 1.0 0.00 0.00 0.00 87 1012.3
20260902021613 80 0 0.0 1.0 0.00 0.00 0.00 87 1012.3
20260902021515 80 0 0.0 1.0 0.00 0.00 0.00 87 1012.2
20260902021401 80 0 0.0 1.0 0.00 0.00 0.00 87 1012.2
20260902021304 80 223 0.0 1.0 0.00 0.00 0.00 87 1012.2
20260902021259 80 223 0.0 1.0 0.00 0.00 0.00 87 1012.2
20260902021158 80 183 0.0 1.0 0.00 0.00 0.00 87 1012.2
20260902021058 81 0 0.0 1.0 0.00 0.00 0.00 87 1012.2
20260902020955 81 289 0.0 1.0 0.00 0.00 0.00 87 1012.2
20260902020852 81 29 0.0 1.0 0.00 0.00 0.00 87 1012.2
20260902020803 81 301 0.0 1.0 0.00 0.00 0.00 87 1012.1
20260902020750 81 313 0.0 1.0 0.00 0.00 0.00 87 1012.1
20260902020650 81 320 0.0 2.0 0.00 0.00 0.00 87 1012.1
20260902020546 81 9 0.0 2.0 0.00 0.00 0.00 86 1012.1
20260902020446 81 0 0.0 2.0 0.00 0.00 0.00 86 1012.1
20260902020346 81 0 0.0 2.0 0.00 0.00 0.00 86 1012.0
20260902020303 81 339 0.0 2.0 0.00 0.00 0.00 86 1012.0
20260902020244 81 292 0.0 2.0 0.00 0.00 0.00 86 1012.0
20260902020141 81 277 0.0 2.0 0.00 0.00 0.00 86 1012.0
20260902020038 81 342 0.0 2.0 0.00 0.00 0.00 86 1011.9
20260902020013 81 9 0.0 2.0 0.00 0.00 0.00 86 1011.9
20260902015934 81 341 0.0 2.0 0.00 0.00 0.00 86 1011.9
20260902015900 81 295 0.0 2.0 0.00 0.00 0.00 86 1011.9
20260902015734 81 0 0.0 2.0 0.00 0.00 0.00 86 1011.9
20260902015632 81 46 0.0 2.0 0.00 0.00 0.00 86 1011.9
20260902015529 81 5 0.0 2.0 0.00 0.00 0.00 86 1011.9
20260902015428 81 11 0.0 2.0 0.00 0.00 0.00 86 1011.9
20260902015325 81 0 0.0 2.0 0.00 0.00 0.00 86 1011.9
20260902015251 81 325 0.0 2.0 0.00 0.00 0.00 86 1011.9
20260902015225 81 61 0.0 2.0 0.00 0.00 0.00 86 1011.9
20260902015123 81 30 0.0 2.0 0.00 0.00 0.00 86 1011.8
20260902015022 81 258 0.0 2.0 0.00 0.00 0.00 86 1011.8
20260902014922 81 0 0.0 2.0 0.00 0.00 0.00 86 1011.8
20260902014820 81 4 0.0 2.0 0.00 0.00 0.00 86 1011.8
20260902014751 81 0 0.0 2.0 0.00 0.00 0.00 86 1011.8
20260902014720 81 342 0.0 2.0 0.00 0.00 0.00 86 1011.8
20260902014617 81 313 0.0 2.0 0.00 0.00 0.00 86 1011.8
20260902014517 81 217 0.0 2.0 0.00 0.00 0.00 86 1011.8
20260902014416 81 302 0.0 2.0 0.00 0.00 0.00 86 1011.8
20260902014314 81 285 0.0 2.0 0.00 0.00 0.00 86 1011.7
20260902014248 81 297 0.0 2.0 0.00 0.00 0.00 86 1011.7
20260902014214 81 300 0.0 2.0 0.00 0.00 0.00 86 1011.7
20260902014114 81 281 0.0 2.0 0.00 0.00 0.00 86 1011.7
20260902014011 81 233 0.0 1.0 0.00 0.00 0.00 85 1011.7
20260902013908 81 0 0.0 1.0 0.00 0.00 0.00 85 1011.6
20260902013805 81 298 0.0 1.0 0.00 0.00 0.00 85 1011.6
20260902013749 81 305 0.0 1.0 0.00 0.00 0.00 85 1011.6
20260902013705 81 307 0.0 1.0 0.00 0.00 0.00 85 1011.6
20260902013602 81 268 0.0 1.0 0.00 0.00 0.00 85 1011.6
20260902013501 81 0 0.0 2.0 0.00 0.00 0.00 84 1011.6
20260902013401 81 0 0.0 2.0 0.00 0.00 0.00 84 1011.6
20260902013256 81 296 0.0 2.0 0.00 0.00 0.00 84 1011.6
20260902013248 81 0 0.0 2.0 0.00 0.00 0.00 84 1011.6
20260902013153 82 325 0.0 2.0 0.00 0.00 0.00 84 1011.6
20260902013050 82 211 0.0 2.0 0.00 0.00 0.00 84 1011.6
20260902012950 82 241 0.0 2.0 0.00 0.00 0.00 84 1011.6
20260902012850 82 0 0.0 2.0 0.00 0.00 0.00 83 1011.6
20260902012750 82 213 0.0 2.0 0.00 0.00 0.00 83 1011.6
20260902012647 82 0 0.0 2.0 0.00 0.00 0.00 83 1011.6
20260902012543 82 248 0.0 2.0 0.00 0.00 0.00 83 1011.6
20260902012444 82 313 0.0 2.0 0.00 0.00 0.00 83 1011.6
20260902012344 82 308 0.0 1.0 0.00 0.00 0.00 83 1011.6
20260902012244 82 11 0.0 1.0 0.00 0.00 0.00 83 1011.6
20260902012138 82 66 0.0 1.0 0.00 0.00 0.00 83 1011.6
20260902012038 82 37 0.0 1.0 0.00 0.00 0.00 82 1011.6
20260902012004 82 334 0.0 2.0 0.00 0.00 0.00 82 1011.5
20260902011935 82 0 0.0 1.0 0.00 0.00 0.00 82 1011.6
20260902011851 82 53 0.0 2.0 0.00 0.00 0.00 82 1011.6
20260902011736 82 27 0.0 2.0 0.00 0.00 0.00 82 1011.5
20260902011635 82 10 0.0 2.0 0.00 0.00 0.00 82 1011.5
20260902011514 82 342 0.0 2.0 0.00 0.00 0.00 82 1011.6
20260902011402 82 10 0.0 2.0 0.00 0.00 0.00 82 1011.6
20260902011246 82 0 0.0 2.0 0.00 0.00 0.00 82 1011.6
20260902011153 82 242 0.0 2.0 0.00 0.00 0.00 81 1011.6
20260902011053 82 10 0.0 2.0 0.00 0.00 0.00 81 1011.6
20260902010953 82 0 0.0 2.0 0.00 0.00 0.00 81 1011.6
20260902010853 82 302 0.0 2.0 0.00 0.00 0.00 81 1011.6
20260902010754 82 280 0.0 1.0 0.00 0.00 0.00 81 1011.6
20260902010735 82 309 0.0 1.0 0.00 0.00 0.00 81 1011.6
20260902010650 83 0 0.0 1.0 0.00 0.00 0.00 81 1011.6
20260902010551 83 0 0.0 1.0 0.00 0.00 0.00 81 1011.6
20260902010456 83 0 0.0 1.0 0.00 0.00 0.00 80 1011.6
20260902010452 83 337 0.0 1.0 0.00 0.00 0.00 80 1011.6
20260902010351 83 234 0.0 1.0 0.00 0.00 0.00 80 1011.6
20260902010340 83 166 0.0 1.0 0.00 0.00 0.00 80 1011.6
20260902010147 83 249 0.0 1.0 0.00 0.00 0.00 80 1011.6
20260902010044 83 50 0.0 1.0 0.00 0.00 0.00 80 1011.7
20260902005944 83 347 0.0 1.0 0.00 0.00 0.00 80 1011.7
20260902005841 83 320 0.0 1.0 0.00 0.00 0.00 80 1011.7
20260902005740 83 289 0.0 1.0 0.00 0.00 0.00 80 1011.7
20260902005735 83 0 0.0 1.0 0.00 0.00 0.00 80 1011.7
20260902005638 83 0 0.0 1.0 0.00 0.00 0.00 79 1011.7
20260902005538 83 299 0.0 1.0 0.00 0.00 0.00 79 1011.7
20260902005458 83 314 0.0 1.0 0.00 0.00 0.00 78 1011.7
20260902005439 83 267 0.0 1.0 0.00 0.00 0.00 79 1011.7
20260902005346 83 19 0.0 1.0 0.00 0.00 0.00 78 1011.7
20260902005340 83 314 0.0 1.0 0.00 0.00 0.00 78 1011.7
20260902005132 83 302 0.0 1.0 0.00 0.00 0.00 78 1011.7
20260902005033 83 336 0.0 1.0 0.00 0.00 0.00 77 1011.7
20260902004930 83 257 0.0 1.0 0.00 0.00 0.00 77 1011.7
20260902004824 83 357 0.0 1.0 0.00 0.00 0.00 77 1011.7
20260902004731 83 31 0.0 1.0 0.00 0.00 0.00 77 1011.7
20260902004724 83 39 0.0 1.0 0.00 0.00 0.00 77 1011.7
20260902004621 84 355 0.0 1.0 0.00 0.00 0.00 77 1011.7
20260902004518 84 318 0.0 1.0 0.00 0.00 0.00 77 1011.7
20260902004418 84 227 0.0 2.0 0.00 0.00 0.00 77 1011.7
20260902004318 84 82 0.0 2.0 0.00 0.00 0.00 77 1011.8
20260902004232 84 0 0.0 3.0 0.00 0.00 0.00 77 1011.8
20260902004215 84 341 0.0 3.0 0.00 0.00 0.00 77 1011.8
20260902004112 84 24 1.0 3.0 0.00 0.00 0.00 77 1011.8
20260902004011 84 0 1.0 3.0 0.00 0.00 0.00 77 1011.8
20260902003908 84 0 1.0 3.0 0.00 0.00 0.00 77 1011.9
20260902003806 84 276 1.0 3.0 0.00 0.00 0.00 77 1011.9
20260902003728 84 339 1.0 3.0 0.00 0.00 0.00 77 1011.9
20260902003712 84 348 2.0 5.0 0.00 0.00 0.00 78 1012.0
20260902003706 84 348 1.0 3.0 0.00 0.00 0.00 77 1011.9
20260902003603 84 24 1.0 3.0 0.00 0.00 0.00 77 1011.9
20260902003552 84 0 1.0 3.0 0.00 0.00 0.00 78 1012.0
20260902003357 84 5 1.0 5.0 0.00 0.00 0.00 77 1012.0
20260902003331 84 0 1.0 5.0 0.00 0.00 0.00 78 1012.0
20260902003154 84 0 2.0 5.0 0.00 0.00 0.00 78 1012.0
20260902003048 84 338 2.0 5.0 0.00 0.00 0.00 77 1012.0
20260902002946 84 342 2.0 5.0 0.00 0.00 0.00 77 1012.0
20260902002836 84 348 2.0 5.0 0.00 0.00 0.00 77 1012.0
20260902002736 84 61 2.0 5.0 0.00 0.00 0.00 77 1012.0
20260902002725 84 3 2.0 5.0 0.00 0.00 0.00 77 1012.0
20260902002636 84 349 2.0 5.0 0.00 0.00 0.00 77 1012.0
20260902002536 84 35 2.0 5.0 0.00 0.00 0.00 77 1012.0
20260902002438 85 31 2.0 5.0 0.00 0.00 0.00 77 1012.0
20260902002337 85 38 2.0 5.0 0.00 0.00 0.00 77 1012.0
20260902002233 85 40 2.0 5.0 0.00 0.00 0.00 77 1012.0
20260902002223 85 37 2.0 5.0 0.00 0.00 0.00 77 1012.0
20260902002134 85 32 2.0 5.0 0.00 0.00 0.00 78 1012.0
20260902002024 85 332 2.0 5.0 0.00 0.00 0.00 77 1012.0
20260902001924 85 39 2.0 5.0 0.00 0.00 0.00 77 1012.0
20260902001825 85 23 2.0 5.0 0.00 0.00 0.00 77 1012.0
20260902001721 85 0 2.0 5.0 0.00 0.00 0.00 76 1011.9
20260902001714 85 344 2.0 5.0 0.00 0.00 0.00 76 1011.9
20260902001622 85 36 2.0 5.0 0.00 0.00 0.00 76 1011.9
20260902001521 85 44 2.0 5.0 0.00 0.00 0.00 76 1011.9
20260902001421 85 13 2.0 5.0 0.00 0.00 0.00 76 1011.9
20260902001321 85 35 1.0 4.0 0.00 0.00 0.00 76 1011.9
20260902001218 85 6 1.0 4.0 0.00 0.00 0.00 76 1011.9
20260902001211 85 24 1.0 4.0 0.00 0.00 0.00 76 1011.9
20260902001118 86 18 1.0 2.0 0.00 0.00 0.00 75 1011.8
20260902001018 86 23 1.0 2.0 0.00 0.00 0.00 75 1011.8
20260902000919 86 25 1.0 2.0 0.00 0.00 0.00 75 1011.8
20260902000819 86 41 1.0 2.0 0.00 0.00 0.00 75 1011.8
20260902000711 86 0 1.0 2.0 0.00 0.00 0.00 75 1011.8
20260902000616 86 355 1.0 2.0 0.00 0.00 0.00 75 1011.8
20260902000516 86 18 1.0 2.0 0.00 0.00 0.00 74 1011.8
20260902000415 86 43 1.0 2.0 0.00 0.00 0.00 74 1011.7
20260902000315 86 316 1.0 2.0 0.00 0.00 0.00 74 1011.7
20260902000215 86 354 1.0 2.0 0.00 0.00 0.00 74 1011.7
20260902000208 86 344 1.0 2.0 0.00 0.00 0.00 74 1011.7
20260902000115 86 344 1.0 2.0 0.00 0.00 0.00 74 1011.7
20260902000015 86 359 1.0 3.0 0.00 0.00 0.00 73 1011.7
20260901235915 86 321 1.0 3.0 0.00 0.00 0.00 73 1011.7
20260901235816 86 269 1.0 3.0 0.00 0.00 0.00 73 1011.7
20260901235716 86 14 1.0 3.0 0.00 0.00 0.00 72 1011.7
20260901235709 86 0 1.0 3.0 0.00 0.00 0.00 72 1011.7
20260901235616 86 359 1.0 3.0 0.00 0.00 0.00 72 1011.7
20260901235513 86 12 1.0 3.0 0.00 0.00 0.00 72 1011.6
20260901235413 86 8 1.0 4.0 0.00 0.00 0.00 72 1011.6
20260901235313 86 333 2.0 4.0 0.00 0.00 0.00 72 1011.6
20260901235213 87 48 2.0 4.0 0.00 0.00 0.00 72 1011.6
20260901235206 87 334 2.0 4.0 0.00 0.00 0.00 71 1011.7
20260901235113 87 359 2.0 4.0 0.00 0.00 0.00 71 1011.7
20260901235010 87 1 2.0 4.0 0.00 0.00 0.00 71 1011.7
20260901234925 87 339 2.0 4.0 0.00 0.00 0.00 71 1011.7
20260901234910 87 42 2.0 4.0 0.00 0.00 0.00 71 1011.7
20260901234813 87 1 2.0 4.0 0.00 0.00 0.00 71 1011.7
20260901234703 87 236 2.0 4.0 0.00 0.00 0.00 71 1011.7
20260901234603 87 344 2.0 4.0 0.00 0.00 0.00 70 1011.7
20260901234504 87 14 2.0 4.0 0.00 0.00 0.00 70 1011.7
20260901234401 87 30 1.0 4.0 0.00 0.00 0.00 70 1011.7
20260901234258 87 26 1.0 4.0 0.00 0.00 0.00 69 1011.7
20260901234207 88 322 1.0 4.0 0.00 0.00 0.00 68 1011.7
20260901234154 88 355 1.0 4.0 0.00 0.00 0.00 68 1011.7
20260901234055 88 341 1.0 4.0 0.00 0.00 0.00 68 1011.7
20260901233955 88 37 1.0 4.0 0.00 0.00 0.00 68 1011.7
20260901233925 88 320 1.0 4.0 0.00 0.00 0.00 67 1011.7
20260901233846 88 196 1.0 4.0 0.00 0.00 0.00 68 1011.7
20260901233811 88 353 1.0 4.0 0.00 0.00 0.00 68 1011.7
20260901233646 88 277 1.0 4.0 0.00 0.00 0.00 67 1011.7
20260901233540 88 347 1.0 4.0 0.00 0.00 0.00 67 1011.8
20260901233440 88 8 1.0 4.0 0.00 0.00 0.00 67 1011.8
20260901233340 88 2 1.0 4.0 0.00 0.00 0.00 67 1011.8
20260901233240 88 13 1.0 4.0 0.00 0.00 0.00 67 1011.8
20260901233206 88 7 1.0 3.0 0.00 0.00 0.00 67 1011.8
20260901233148 88 352 2.0 6.0 0.00 0.00 0.00 66 1011.8
20260901233140 88 261 1.0 3.0 0.00 0.00 0.00 67 1011.8
20260901233040 88 346 1.0 3.0 0.00 0.00 0.00 66 1011.8
20260901233035 88 337 1.0 3.0 0.00 0.00 0.00 66 1011.8
20260901232839 88 330 2.0 6.0 0.00 0.00 0.00 66 1011.8
20260901232812 88 350 2.0 6.0 0.00 0.00 0.00 66 1011.8
20260901232640 88 316 2.0 6.0 0.00 0.00 0.00 66 1011.8
20260901232540 88 344 2.0 6.0 0.00 0.00 0.00 67 1011.8
20260901232440 88 346 2.0 6.0 0.00 0.00 0.00 67 1011.8
20260901232337 88 11 2.0 6.0 0.00 0.00 0.00 67 1011.8
20260901232234 88 337 2.0 6.0 0.00 0.00 0.00 67 1011.8
20260901232206 89 73 2.0 6.0 0.00 0.00 0.00 65 1011.8
20260901232134 89 342 2.0 6.0 0.00 0.00 0.00 65 1011.8
20260901232034 89 279 2.0 6.0 0.00 0.00 0.00 65 1011.8
20260901231934 89 15 2.0 6.0 0.00 0.00 0.00 65 1011.8
20260901231834 89 325 2.0 6.0 0.00 0.00 0.00 66 1011.8
20260901231731 89 48 2.0 6.0 0.00 0.00 0.00 66 1011.9
20260901231706 89 322 2.0 6.0 0.00 0.00 0.00 66 1011.8
20260901231628 89 349 2.0 6.0 0.00 0.00 0.00 66 1011.8
20260901231525 89 216 2.0 6.0 0.00 0.00 0.00 66 1011.9
20260901231425 89 30 2.0 6.0 0.00 0.00 0.00 66 1011.9
20260901231325 89 14 2.0 6.0 0.00 0.00 0.00 65 1011.9
20260901231225 89 244 2.0 5.0 0.00 0.00 0.00 65 1011.9
20260901231206 89 345 2.0 6.0 0.00 0.00 0.00 65 1011.9
20260901231125 89 334 2.0 6.0 0.00 0.00 0.00 65 1011.9
20260901231025 89 21 2.0 6.0 0.00 0.00 0.00 65 1011.9
20260901230929 89 45 2.0 8.0 0.00 0.00 0.00 65 1011.9
20260901230925 89 336 2.0 7.0 0.00 0.00 0.00 65 1011.9
20260901230826 89 339 2.0 8.0 0.00 0.00 0.00 65 1011.9
20260901230811 89 256 2.0 8.0 0.00 0.00 0.00 65 1011.9
20260901230622 89 118 2.0 8.0 0.00 0.00 0.00 65 1011.9
20260901230522 89 64 2.0 8.0 0.00 0.00 0.00 66 1011.9
20260901230419 89 358 2.0 8.0 0.00 0.00 0.00 66 1011.9
20260901230319 89 261 2.0 8.0 0.00 0.00 0.00 65 1011.9
20260901230219 89 315 2.0 8.0 0.00 0.00 0.00 65 1011.9
20260901230206 89 346 2.0 8.0 0.00 0.00 0.00 65 1011.9
20260901230119 89 233 2.0 8.0 0.00 0.00 0.00 65 1011.9
20260901230019 89 335 2.0 8.0 0.00 0.00 0.00 65 1011.9
20260901225920 89 2 2.0 8.0 0.00 0.00 0.00 65 1011.8
20260901225820 89 337 2.0 6.0 0.00 0.00 0.00 65 1011.8
20260901225713 89 340 2.0 6.0 0.00 0.00 0.00 65 1011.8
20260901225704 89 22 2.0 6.0 0.00 0.00 0.00 65 1011.8
20260901225613 89 335 2.0 6.0 0.00 0.00 0.00 65 1011.8
20260901225508 89 314 1.0 6.0 0.00 0.00 0.00 65 1011.8
20260901225431 89 310 1.0 4.0 0.00 0.00 0.00 65 1011.8
20260901225404 89 333 1.0 6.0 0.00 0.00 0.00 65 1011.8
20260901225314 89 351 1.0 6.0 0.00 0.00 0.00 65 1011.8
20260901225308 89 310 1.0 4.0 0.00 0.00 0.00 65 1011.8
20260901225102 89 12 1.0 2.0 0.00 0.00 0.00 65 1011.8
20260901225001 89 327 1.0 2.0 0.00 0.00 0.00 65 1011.8
20260901224902 89 47 1.0 2.0 0.00 0.00 0.00 65 1011.8
20260901224802 89 348 1.0 2.0 0.00 0.00 0.00 65 1011.8
20260901224706 89 283 1.0 2.0 0.00 0.00 0.00 65 1011.8
20260901224702 89 263 1.0 2.0 0.00 0.00 0.00 65 1011.8
20260901224601 89 340 1.0 2.0 0.00 0.00 0.00 65 1011.8
20260901224501 89 287 1.0 3.0 0.00 0.00 0.00 65 1011.8
20260901224402 89 299 1.0 3.0 0.00 0.00 0.00 65 1011.8
20260901224302 89 358 1.0 3.0 0.00 0.00 0.00 66 1011.8
20260901224204 89 275 1.0 3.0 0.00 0.00 0.00 66 1011.8
20260901224159 89 301 1.0 3.0 0.00 0.00 0.00 66 1011.8
20260901224058 89 351 1.0 3.0 0.00 0.00 0.00 66 1011.8
20260901223959 89 340 1.0 3.0 0.00 0.00 0.00 66 1011.8
20260901223855 89 351 1.0 3.0 0.00 0.00 0.00 66 1011.8
20260901223747 89 337 1.0 3.0 0.00 0.00 0.00 66 1011.8
20260901223700 89 359 1.0 3.0 0.00 0.00 0.00 66 1011.8
20260901223644 89 333 1.0 3.0 0.00 0.00 0.00 66 1011.8
20260901223543 89 43 1.0 3.0 0.00 0.00 0.00 66 1011.8
20260901223443 89 30 1.0 2.0 0.00 0.00 0.00 66 1011.8
20260901223341 89 29 1.0 2.0 0.00 0.00 0.00 66 1011.8
20260901223240 89 279 1.0 2.0 0.00 0.00 0.00 66 1011.8
20260901223159 89 0 1.0 2.0 0.00 0.00 0.00 66 1011.8
20260901223141 89 118 1.0 2.0 0.00 0.00 0.00 66 1011.8
20260901223037 89 263 1.0 2.0 0.00 0.00 0.00 66 1011.8
20260901222935 89 261 1.0 2.0 0.00 0.00 0.00 66 1011.8
20260901222835 89 7 1.0 2.0 0.00 0.00 0.00 66 1011.9
20260901222734 89 343 1.0 2.0 0.00 0.00 0.00 66 1011.9
20260901222658 89 348 1.0 2.0 0.00 0.00 0.00 66 1011.9
20260901222634 89 264 1.0 2.0 0.00 0.00 0.00 66 1011.9
20260901222535 89 344 1.0 3.0 0.00 0.00 0.00 66 1011.9
20260901222435 89 350 1.0 3.0 0.00 0.00 0.00 65 1011.9
20260901222422 89 284 1.0 4.0 0.00 0.00 0.00 65 1011.9
20260901222332 89 351 1.0 3.0 0.00 0.00 0.00 66 1011.9
20260901222306 89 0 1.0 3.0 0.00 0.00 0.00 65 1011.9
20260901222126 89 231 1.0 4.0 0.00 0.00 0.00 65 1011.9
20260901222023 89 345 1.0 4.0 0.00 0.00 0.00 65 1011.9
20260901221923 89 42 1.0 4.0 0.00 0.00 0.00 65 1011.9
20260901221823 89 32 1.0 4.0 0.00 0.00 0.00 65 1011.9
20260901221723 89 9 1.0 4.0 0.00 0.00 0.00 65 1011.9
20260901221657 89 309 1.0 4.0 0.00 0.00 0.00 65 1011.9
20260901221620 89 272 1.0 5.0 0.00 0.00 0.00 65 1011.9
20260901221520 88 230 1.0 5.0 0.00 0.00 0.00 65 1011.9
20260901221420 88 40 1.0 5.0 0.00 0.00 0.00 65 1011.9
20260901221317 88 344 1.0 5.0 0.00 0.00 0.00 65 1011.9
20260901221214 88 188 1.0 5.0 0.00 0.00 0.00 65 1011.9
20260901221158 88 219 1.0 5.0 0.00 0.00 0.00 66 1011.9
20260901221114 88 99 1.0 5.0 0.00 0.00 0.00 66 1011.9
20260901221014 88 304 1.0 5.0 0.00 0.00 0.00 66 1011.9
20260901220915 88 337 1.0 5.0 0.00 0.00 0.00 66 1011.9
20260901220812 88 19 2.0 5.0 0.00 0.00 0.00 66 1011.9
20260901220712 88 341 2.0 5.0 0.00 0.00 0.00 66 1012.0
20260901220659 88 245 2.0 5.0 0.00 0.00 0.00 66 1012.0
20260901220602 88 18 2.0 5.0 0.00 0.00 0.00 66 1012.0
20260901220459 88 303 2.0 5.0 0.00 0.00 0.00 66 1012.0
20260901220354 88 347 2.0 5.0 0.00 0.00 0.00 67 1012.0
20260901220254 88 204 2.0 5.0 0.00 0.00 0.00 66 1012.0
20260901220154 88 13 2.0 5.0 0.00 0.00 0.00 66 1012.1
20260901220054 88 320 2.0 5.0 0.00 0.00 0.00 66 1012.1
20260901215953 88 345 2.0 5.0 0.00 0.00 0.00 67 1012.1
20260901215916 88 272 2.0 5.0 0.00 0.00 0.00 67 1012.1
20260901215853 88 22 2.0 5.0 0.00 0.00 0.00 67 1012.1
20260901215804 88 21 1.0 5.0 0.00 0.00 0.00 67 1012.1
20260901215758 88 272 2.0 5.0 0.00 0.00 0.00 67 1012.1
20260901215553 88 344 2.0 5.0 0.00 0.00 0.00 67 1012.1
20260901215459 88 31 2.0 5.0 0.00 0.00 0.00 66 1012.1
20260901215353 88 14 2.0 5.0 0.00 0.00 0.00 66 1012.1
20260901215253 88 10 2.0 4.0 0.00 0.00 0.00 67 1012.2
20260901215154 88 328 1.0 4.0 0.00 0.00 0.00 67 1012.2
20260901215051 88 347 2.0 4.0 0.00 0.00 0.00 67 1012.2
20260901214948 88 352 2.0 4.0 0.00 0.00 0.00 67 1012.2
20260901214848 88 91 2.0 4.0 0.00 0.00 0.00 66 1012.2
20260901214745 88 332 2.0 4.0 0.00 0.00 0.00 67 1012.2
20260901214650 88 331 2.0 7.0 0.00 0.00 0.00 68 1012.3
20260901214645 88 255 2.0 7.0 0.00 0.00 0.00 68 1012.3
20260901214545 88 339 2.0 7.0 0.00 0.00 0.00 67 1012.3
20260901214445 88 335 2.0 7.0 0.00 0.00 0.00 68 1012.3
20260901214345 88 352 2.0 7.0 0.00 0.00 0.00 68 1012.3
20260901214242 88 329 2.0 7.0 0.00 0.00 0.00 68 1012.3
20260901214150 88 63 2.0 7.0 0.00 0.00 0.00 67 1012.3
20260901214136 88 299 2.0 7.0 0.00 0.00 0.00 67 1012.3
20260901214036 88 359 2.0 7.0 0.00 0.00 0.00 67 1012.3
20260901213933 88 330 2.0 7.0 0.00 0.00 0.00 67 1012.3
20260901213830 88 269 2.0 7.0 0.00 0.00 0.00 67 1012.4
20260901213730 88 331 2.0 7.0 0.00 0.00 0.00 67 1012.4
20260901213647 88 8 2.0 5.0 0.00 0.00 0.00 67 1012.4
20260901213527 89 331 1.0 3.0 0.00 0.00 0.00 66 1012.4
20260901213427 89 333 1.0 3.0 0.00 0.00 0.00 66 1012.4
20260901213324 89 359 1.0 3.0 0.00 0.00 0.00 66 1012.4
20260901213218 89 324 1.0 3.0 0.00 0.00 0.00 66 1012.4
20260901213143 89 316 1.0 3.0 0.00 0.00 0.00 66 1012.4
20260901213118 89 314 1.0 3.0 0.00 0.00 0.00 66 1012.4
20260901213018 89 3 1.0 3.0 0.00 0.00 0.00 66 1012.4
20260901212915 89 331 1.0 3.0 0.00 0.00 0.00 66 1012.4
20260901212815 89 318 1.0 3.0 0.00 0.00 0.00 66 1012.4
20260901212712 89 277 1.0 3.0 0.00 0.00 0.00 68 1012.4
20260901212644 89 298 1.0 3.0 0.00 0.00 0.00 68 1012.4
20260901212612 89 209 1.0 3.0 0.00 0.00 0.00 68 1012.4
20260901212513 89 5 1.0 3.0 0.00 0.00 0.00 67 1012.4
20260901212410 89 18 1.0 3.0 0.00 0.00 0.00 67 1012.4
20260901212309 89 231 1.0 4.0 0.00 0.00 0.00 66 1012.4
20260901212200 89 331 1.0 4.0 0.00 0.00 0.00 66 1012.4
20260901212137 89 259 1.0 4.0 0.00 0.00 0.00 66 1012.4
20260901212100 89 335 1.0 4.0 0.00 0.00 0.00 66 1012.4
20260901212000 89 324 1.0 4.0 0.00 0.00 0.00 66 1012.4
20260901211900 89 331 1.0 4.0 0.00 0.00 0.00 65 1012.4
20260901211800 89 43 1.0 4.0 0.00 0.00 0.00 64 1012.3
20260901211700 89 333 1.0 4.0 0.00 0.00 0.00 64 1012.3
20260901211638 89 348 1.0 4.0 0.00 0.00 0.00 64 1012.3
20260901211600 89 350 1.0 4.0 0.00 0.00 0.00 64 1012.3
20260901211500 89 340 1.0 4.0 0.00 0.00 0.00 64 1012.3
20260901211400 89 293 1.0 3.0 0.00 0.00 0.00 65 1012.4
20260901211257 89 0 1.0 2.0 0.00 0.00 0.00 64 1012.3
20260901211157 89 326 1.0 2.0 0.00 0.00 0.00 64 1012.3
20260901211135 89 341 1.0 2.0 0.00 0.00 0.00 64 1012.3
20260901211054 89 334 1.0 2.0 0.00 0.00 0.00 64 1012.3
20260901210951 89 20 1.0 2.0 0.00 0.00 0.00 64 1012.3
20260901210848 89 337 1.0 2.0 0.00 0.00 0.00 64 1012.3
20260901210748 89 285 1.0 2.0 0.00 0.00 0.00 64 1012.3
20260901210648 89 341 1.0 2.0 0.00 0.00 0.00 64 1012.3
20260901210628 89 338 1.0 2.0 0.00 0.00 0.00 64 1012.3
20260901210548 89 353 1.0 2.0 0.00 0.00 0.00 64 1012.4
20260901210448 89 346 1.0 3.0 0.00 0.00 0.00 64 1012.4
20260901210343 89 343 1.0 3.0 0.00 0.00 0.00 65 1012.4
20260901210233 89 359 1.0 3.0 0.00 0.00 0.00 65 1012.4
20260901210127 89 324 1.0 3.0 0.00 0.00 0.00 65 1012.4
20260901210027 89 332 1.0 3.0 0.00 0.00 0.00 65 1012.4
20260901205927 89 359 1.0 4.0 0.00 0.00 0.00 65 1012.4
20260901205827 89 355 1.0 4.0 0.00 0.00 0.00 65 1012.3
20260901205727 89 124 1.0 4.0 0.00 0.00 0.00 65 1012.3
20260901205621 89 355 2.0 4.0 0.00 0.00 0.00 65 1012.3
20260901205521 89 350 2.0 4.0 0.00 0.00 0.00 65 1012.3
20260901205413 89 23 1.0 4.0 0.00 0.00 0.00 64 1012.3
20260901205312 89 32 2.0 4.0 0.00 0.00 0.00 64 1012.3
20260901205212 89 302 2.0 6.0 0.00 0.01 0.00 64 1012.3
20260901205120 89 357 2.0 6.0 0.00 0.01 0.00 64 1012.3
20260901205112 89 6 2.0 6.0 0.00 0.01 0.00 64 1012.3
20260901205011 89 11 2.0 6.0 0.00 0.01 0.00 64 1012.3
20260901204911 89 337 1.0 6.0 0.00 0.01 0.00 64 1012.3
20260901204811 89 349 1.0 6.0 0.00 0.01 0.00 64 1012.3
20260901204711 89 6 1.0 6.0 0.00 0.01 0.00 64 1012.3
20260901204621 89 350 1.0 6.0 0.00 0.01 0.00 64 1012.3
20260901204609 89 315 1.0 6.0 0.00 0.01 0.00 64 1012.3
20260901204509 89 62 1.0 6.0 0.00 0.01 0.00 63 1012.3
20260901204409 89 58 1.0 6.0 0.00 0.01 0.00 63 1012.3
20260901204309 89 345 1.0 6.0 0.00 0.01 0.00 65 1012.3
20260901204210 89 326 1.0 5.0 0.00 0.01 0.00 65 1012.3
20260901204117 89 5 1.0 5.0 0.00 0.01 0.00 65 1012.3
20260901204110 89 23 1.0 5.0 0.00 0.01 0.00 65 1012.3
20260901204007 88 279 1.0 5.0 0.00 0.01 0.00 67 1012.4
20260901203907 88 294 1.0 5.0 0.00 0.01 0.00 67 1012.4
20260901203757 88 233 1.0 5.0 0.00 0.01 0.00 67 1012.4
20260901203654 88 355 1.0 5.0 0.00 0.01 0.00 67 1012.4
20260901203618 88 345 1.0 5.0 0.00 0.01 0.00 67 1012.4
20260901203551 88 358 1.0 5.0 0.00 0.01 0.00 67 1012.4
20260901203449 88 334 1.0 5.0 0.00 0.01 0.00 67 1012.4
20260901203349 88 16 1.0 5.0 0.00 0.01 0.00 67 1012.4
20260901203249 88 81 1.0 5.0 0.00 0.01 0.00 67 1012.4
20260901203143 88 325 1.0 5.0 0.00 0.01 0.00 67 1012.4
20260901203114 88 354 1.0 5.0 0.00 0.01 0.00 67 1012.4
20260901203037 88 8 1.0 5.0 0.00 0.01 0.00 68 1012.4
20260901202933 88 310 1.0 5.0 0.00 0.01 0.00 69 1012.5
20260901202834 88 21 1.0 5.0 0.00 0.01 0.00 69 1012.5
20260901202728 88 343 1.0 5.0 0.00 0.01 0.00 69 1012.5
20260901202627 88 7 1.0 5.0 0.00 0.01 0.00 69 1012.5
20260901202614 88 350 1.0 5.0 0.00 0.01 0.00 69 1012.5
20260901202525 88 16 1.0 5.0 0.00 0.01 0.00 69 1012.5
20260901202419 88 318 1.0 3.0 0.00 0.01 0.00 70 1012.5
20260901202316 88 37 1.0 3.0 0.00 0.01 0.00 70 1012.6
20260901202213 88 45 1.0 3.0 0.00 0.01 0.00 71 1012.6
20260901202113 88 3 1.0 3.0 0.00 0.01 0.00 70 1012.6
20260901202013 88 27 1.0 3.0 0.00 0.01 0.00 70 1012.6
20260901201913 88 254 1.0 3.0 0.00 0.01 0.00 70 1012.6
20260901201813 88 0 1.0 4.0 0.00 0.01 0.00 71 1012.6
20260901201711 87 0 1.0 4.0 0.00 0.01 0.00 72 1012.7
20260901201614 87 320 2.0 7.0 0.00 0.01 0.00 72 1012.7
20260901201610 87 334 2.0 7.0 0.00 0.01 0.00 72 1012.7
20260901201507 87 273 2.0 7.0 0.00 0.01 0.00 71 1012.7
20260901201407 87 353 2.0 7.0 0.00 0.01 0.00 72 1012.7
20260901201308 87 346 2.0 7.0 0.00 0.01 0.00 73 1012.7
20260901201204 87 15 2.0 7.0 0.00 0.01 0.00 73 1012.7
20260901201111 87 185 2.0 7.0 0.00 0.01 0.00 72 1012.8
20260901201104 87 100 2.0 7.0 0.00 0.01 0.00 72 1012.8
20260901201004 87 13 2.0 7.0 0.00 0.01 0.00 72 1012.8
20260901200858 87 348 2.0 7.0 0.00 0.01 0.00 71 1012.8
20260901200758 87 4 2.0 7.0 0.00 0.01 0.00 71 1012.8
20260901200659 87 19 1.0 5.0 0.00 0.01 0.00 71 1012.8
20260901200609 87 277 1.0 3.0 0.00 0.01 0.00 71 1012.8
20260901200555 87 319 1.0 3.0 0.00 0.01 0.00 71 1012.8
20260901200455 87 339 1.0 3.0 0.00 0.01 0.00 71 1012.8
20260901200355 87 334 1.0 3.0 0.00 0.01 0.00 71 1012.8
20260901200255 87 258 1.0 3.0 0.00 0.01 0.00 71 1012.8
20260901200156 87 223 1.0 3.0 0.00 0.01 0.00 72 1012.9
20260901200108 87 10 1.0 3.0 0.00 0.01 0.00 71 1012.9
20260901200049 87 214 1.0 3.0 0.00 0.01 0.00 71 1012.9
20260901195946 87 346 1.0 3.0 0.00 0.01 0.00 71 1012.9
20260901195847 87 359 1.0 3.0 0.00 0.01 0.00 71 1013.0
20260901195751 87 315 1.0 3.0 0.00 0.01 0.00 71 1013.0
20260901195644 87 37 1.0 4.0 0.00 0.01 0.00 72 1013.0
20260901195609 87 321 1.0 5.0 0.00 0.01 0.00 72 1013.0
20260901195543 87 306 1.0 5.0 0.00 0.01 0.00 72 1013.0
20260901195438 87 0 1.0 5.0 0.00 0.01 0.00 71 1013.0
20260901195338 87 321 1.0 5.0 0.00 0.01 0.00 71 1013.1
20260901195238 87 2 2.0 5.0 0.00 0.01 0.00 71 1013.1
20260901195137 87 9 2.0 6.0 0.00 0.01 0.00 71 1013.1
20260901195109 87 17 2.0 6.0 0.00 0.01 0.00 71 1013.1
20260901195032 87 330 2.0 6.0 0.00 0.01 0.00 71 1013.1
20260901194931 87 315 2.0 6.0 0.00 0.01 0.00 71 1013.1
20260901194828 87 310 2.0 6.0 0.00 0.01 0.00 71 1013.1
20260901194728 87 18 2.0 6.0 0.00 0.01 0.00 71 1013.1
20260901194625 87 341 2.0 6.0 0.00 0.01 0.00 70 1013.1
20260901194609 87 22 2.0 6.0 0.00 0.01 0.00 70 1013.1
20260901194525 87 0 2.0 6.0 0.00 0.01 0.00 70 1013.1
20260901194425 87 346 2.0 6.0 0.00 0.01 0.00 70 1013.1
20260901194325 87 302 2.0 6.0 0.00 0.01 0.00 70 1013.1
20260901194225 87 341 2.0 6.0 0.00 0.01 0.00 70 1013.1
20260901194125 87 323 1.0 4.0 0.00 0.01 0.00 69 1013.1
20260901194109 87 331 1.0 4.0 0.00 0.01 0.00 69 1013.1
20260901194026 87 357 2.0 4.0 0.00 0.01 0.00 69 1013.1
20260901193926 87 313 2.0 4.0 0.00 0.01 0.00 69 1013.2
20260901193830 88 10 2.0 4.0 0.00 0.01 0.00 69 1013.3
20260901193826 87 331 2.0 4.0 0.00 0.01 0.00 70 1013.2
20260901193725 87 342 2.0 4.0 0.00 0.01 0.00 69 1013.2
20260901193714 87 338 2.0 4.0 0.00 0.01 0.00 68 1013.2
20260901193523 88 36 1.0 4.0 0.00 0.01 0.00 69 1013.3
20260901193420 88 1 1.0 4.0 0.00 0.01 0.00 69 1013.3
20260901193314 88 322 1.0 4.0 0.00 0.01 0.00 69 1013.3
20260901193212 88 323 1.0 3.0 0.00 0.01 0.00 68 1013.3
20260901193109 88 25 1.0 3.0 0.00 0.01 0.00 69 1013.3
20260901193012 88 32 1.0 2.0 0.00 0.01 0.00 68 1013.3
20260901192912 88 14 1.0 3.0 0.00 0.01 0.00 69 1013.3
20260901192811 88 345 1.0 7.0 0.00 0.01 0.00 69 1013.3
20260901192710 87 358 1.0 7.0 0.00 0.01 0.00 70 1013.4
20260901192610 87 291 1.0 7.0 0.00 0.01 0.00 70 1013.4
20260901192505 87 357 1.0 7.0 0.00 0.01 0.00 70 1013.4
20260901192402 87 161 1.0 7.0 0.00 0.01 0.00 70 1013.4
20260901192325 87 15 2.0 7.0 0.00 0.01 0.00 69 1013.4
20260901192259 87 4 1.0 7.0 0.00 0.01 0.00 70 1013.4
20260901192206 87 109 2.0 7.0 0.00 0.01 0.00 70 1013.4
20260901192056 87 1 2.0 7.0 0.00 0.01 0.00 69 1013.4
20260901191953 87 46 2.0 7.0 0.00 0.01 0.00 69 1013.4
20260901191853 87 6 2.0 7.0 0.00 0.01 0.00 69 1013.4
20260901191751 87 44 2.0 7.0 0.00 0.01 0.00 69 1013.4
20260901191650 87 285 2.0 6.0 0.00 0.01 0.00 69 1013.4
20260901191550 87 34 2.0 6.0 0.00 0.01 0.00 69 1013.4
20260901191450 87 352 2.0 6.0 0.00 0.01 0.00 69 1013.4
20260901191349 87 20 2.0 6.0 0.00 0.01 0.00 68 1013.4
20260901191247 87 4 2.0 6.0 0.00 0.01 0.00 68 1013.4
20260901191147 87 301 2.0 6.0 0.00 0.01 0.00 68 1013.4
20260901191058 87 309 2.0 6.0 0.00 0.01 0.00 68 1013.4
20260901191047 87 351 2.0 6.0 0.00 0.01 0.00 68 1013.4
20260901190941 87 20 2.0 6.0 0.00 0.01 0.00 67 1013.4
20260901190838 87 346 2.0 6.0 0.00 0.01 0.00 68 1013.4
20260901190824 87 336 2.0 7.0 0.00 0.01 0.00 67 1013.4
20260901190738 87 350 2.0 6.0 0.00 0.01 0.00 67 1013.4
20260901190704 87 9 2.0 5.0 0.00 0.01 0.00 67 1013.4
20260901190539 87 41 2.0 7.0 0.00 0.01 0.00 67 1013.4
20260901190438 87 13 2.0 7.0 0.00 0.01 0.00 68 1013.4
20260901190335 87 11 2.0 7.0 0.00 0.01 0.00 68 1013.4
20260901190322 87 332 2.0 7.0 0.00 0.01 0.00 68 1013.4
20260901190235 87 10 2.0 7.0 0.00 0.01 0.00 68 1013.4
20260901190203 87 353 2.0 7.0 0.00 0.01 0.00 68 1013.4
20260901190035 87 30 2.0 7.0 0.00 0.01 0.00 68 1013.4
20260901185932 87 25 2.0 7.0 0.00 0.01 0.00 68 1013.4
20260901185837 88 19 2.0 7.0 0.00 0.01 0.00 68 1013.4
20260901185732 88 324 2.0 7.0 0.00 0.01 0.00 68 1013.4
20260901185626 88 281 2.0 7.0 0.00 0.01 0.00 68 1013.4
20260901185558 87 31 2.0 7.0 0.00 0.01 0.00 70 1013.5
20260901185521 87 38 2.0 6.0 0.00 0.01 0.00 70 1013.5
20260901185420 87 24 2.0 6.0 0.00 0.01 0.00 70 1013.5
20260901185313 87 359 2.0 6.0 0.00 0.01 0.00 69 1013.5
20260901185213 87 355 2.0 6.0 0.00 0.01 0.00 69 1013.5
20260901185111 87 17 2.0 6.0 0.00 0.01 0.00 69 1013.5
20260901185058 87 3 2.0 6.0 0.00 0.01 0.00 69 1013.5
20260901185011 87 332 2.0 6.0 0.00 0.01 0.00 69 1013.6
20260901184905 87 26 2.0 6.0 0.00 0.01 0.00 69 1013.6
20260901184805 87 7 2.0 4.0 0.00 0.01 0.00 68 1013.6
20260901184703 87 28 1.0 4.0 0.00 0.01 0.00 68 1013.6
20260901184558 87 0 1.0 4.0 0.00 0.01 0.00 67 1013.6
20260901184500 87 2 1.0 4.0 0.00 0.01 0.00 67 1013.7
20260901184357 87 334 1.0 4.0 0.00 0.01 0.00 67 1013.7
20260901184254 87 50 2.0 4.0 0.00 0.01 0.00 67 1013.7
20260901184151 87 202 2.0 4.0 0.00 0.01 0.00 67 1013.8
20260901184058 87 352 2.0 5.0 0.00 0.01 0.00 69 1013.8
20260901184051 87 285 2.0 5.0 0.00 0.01 0.00 69 1013.8
20260901183951 87 118 2.0 5.0 0.00 0.01 0.00 69 1013.8
20260901183844 87 350 2.0 5.0 0.00 0.01 0.00 69 1013.8
20260901183820 87 269 2.0 5.0 0.00 0.01 0.00 69 1013.9
20260901183742 87 338 2.0 5.0 0.00 0.01 0.00 68 1013.9
20260901183704 87 258 2.0 5.0 0.00 0.01 0.00 69 1013.9
20260901183533 87 348 2.0 5.0 0.00 0.01 0.00 69 1013.9
20260901183433 87 330 2.0 5.0 0.00 0.01 0.00 69 1013.9
20260901183333 87 33 2.0 5.0 0.00 0.01 0.00 69 1013.9
20260901183233 87 1 2.0 5.0 0.00 0.01 0.00 68 1014.0
20260901183133 87 356 2.0 5.0 0.00 0.01 0.00 68 1014.0
20260901183056 87 10 2.0 5.0 0.00 0.01 0.00 68 1014.0
20260901183032 87 1 2.0 5.0 0.00 0.01 0.00 68 1014.0
20260901182926 87 356 2.0 5.0 0.00 0.01 0.00 67 1014.0
20260901182826 87 326 2.0 5.0 0.00 0.01 0.00 68 1014.0
20260901182727 87 343 2.0 6.0 0.00 0.01 0.00 68 1014.1
20260901182627 87 326 2.0 6.0 0.00 0.01 0.00 68 1014.0
20260901182555 87 346 2.0 6.0 0.00 0.01 0.00 68 1014.0
20260901182521 87 352 3.0 6.0 0.00 0.01 0.00 68 1014.0
20260901182415 88 22 3.0 6.0 0.00 0.01 0.00 68 1014.0
20260901182315 88 341 2.0 6.0 0.00 0.01 0.00 68 1014.0
20260901182209 88 29 3.0 8.0 0.00 0.01 0.00 68 1014.0
20260901182109 88 26 3.0 8.0 0.00 0.01 0.00 68 1014.0
20260901182056 88 36 3.0 8.0 0.00 0.01 0.00 68 1014.0
20260901182006 88 19 2.0 8.0 0.00 0.01 0.00 68 1014.0
20260901181906 88 343 3.0 8.0 0.00 0.01 0.00 67 1013.9
20260901181759 88 26 3.0 8.0 0.00 0.01 0.00 68 1014.0
20260901181700 88 49 3.0 8.0 0.00 0.01 0.00 68 1013.9
20260901181558 88 35 3.0 8.0 0.00 0.01 0.00 67 1013.9
20260901181552 88 22 3.0 8.0 0.00 0.01 0.00 67 1013.9
20260901181457 88 328 3.0 8.0 0.00 0.01 0.00 68 1013.9
20260901181357 88 48 3.0 8.0 0.00 0.01 0.00 68 1013.9
20260901181254 88 38 3.0 8.0 0.00 0.01 0.00 68 1013.9
20260901181151 88 345 3.0 8.0 0.00 0.01 0.00 67 1013.9
20260901181049 88 332 3.0 8.0 0.00 0.01 0.00 67 1013.8
20260901181045 88 13 3.0 8.0 0.00 0.01 0.00 67 1013.8
20260901180945 88 151 3.0 8.0 0.00 0.01 0.00 67 1013.8
20260901180845 89 35 3.0 8.0 0.00 0.01 0.00 67 1013.8
20260901180742 89 5 3.0 8.0 0.00 0.01 0.00 66 1013.8
20260901180642 89 21 3.0 8.0 0.00 0.01 0.00 67 1013.8
20260901180547 89 338 3.0 8.0 0.00 0.01 0.00 67 1013.8
20260901180542 89 355 3.0 8.0 0.00 0.01 0.00 67 1013.8
20260901180442 89 315 3.0 8.0 0.00 0.01 0.00 68 1013.8
20260901180342 89 322 3.0 8.0 0.00 0.01 0.00 68 1013.8
20260901180242 89 351 3.0 8.0 0.00 0.01 0.00 68 1013.8
20260901180139 89 25 3.0 6.0 0.00 0.01 0.00 68 1013.8
20260901180046 89 351 3.0 6.0 0.00 0.01 0.00 68 1013.7
20260901180039 89 6 3.0 6.0 0.00 0.01 0.00 68 1013.7
20260901175939 89 15 2.0 6.0 0.00 0.01 0.00 68 1013.7
20260901175839 89 325 2.0 6.0 0.00 0.01 0.00 68 1013.7
20260901175739 89 352 2.0 6.0 0.00 0.01 0.00 69 1013.7
20260901175636 89 35 2.0 6.0 0.00 0.01 0.00 69 1013.7
20260901175547 89 344 2.0 6.0 0.00 0.01 0.00 68 1013.7
20260901175536 89 341 2.0 6.0 0.00 0.01 0.00 68 1013.7
20260901175433 89 6 2.0 6.0 0.00 0.01 0.00 68 1013.8
20260901175333 89 13 2.0 6.0 0.00 0.01 0.00 69 1013.8
20260901175310 89 22 2.0 6.0 0.00 0.01 0.00 69 1013.8
20260901175230 89 339 2.0 6.0 0.00 0.01 0.00 69 1013.8
20260901175152 89 5 2.0 6.0 0.00 0.01 0.00 69 1013.8
20260901175031 89 351 2.0 6.0 0.00 0.01 0.00 69 1013.8
20260901174927 89 349 2.0 6.0 0.00 0.01 0.00 69 1013.8
20260901174827 89 0 2.0 6.0 0.00 0.01 0.00 69 1013.8
20260901174727 89 332 2.0 6.0 0.00 0.01 0.00 69 1013.9
20260901174627 89 337 2.0 6.0 0.00 0.01 0.00 69 1013.9
20260901174547 89 16 2.0 6.0 0.00 0.01 0.00 68 1013.9
20260901174527 89 347 2.0 6.0 0.00 0.01 0.00 68 1013.9
20260901174427 89 268 2.0 6.0 0.00 0.01 0.00 68 1013.9
20260901174327 89 13 2.0 6.0 0.00 0.01 0.00 69 1013.9
20260901174310 89 36 2.0 6.0 0.00 0.01 0.00 68 1013.9
20260901174224 89 339 2.0 6.0 0.00 0.01 0.00 68 1013.9
20260901174152 89 15 2.0 6.0 0.00 0.01 0.00 68 1013.9
20260901174024 89 334 2.0 6.0 0.00 0.01 0.00 68 1013.9
20260901173921 89 353 2.0 6.0 0.00 0.01 0.00 67 1013.9
20260901173821 89 40 2.0 6.0 0.00 0.01 0.00 67 1013.9
20260901173721 89 7 3.0 6.0 0.00 0.01 0.00 68 1013.9
20260901173621 89 116 3.0 6.0 0.00 0.01 0.00 69 1014.0
20260901173547 89 338 3.0 6.0 0.00 0.01 0.00 69 1014.0
20260901173522 89 283 3.0 6.0 0.00 0.01 0.00 69 1014.0
20260901173422 89 13 2.0 6.0 0.00 0.01 0.00 68 1014.0
20260901173322 89 30 2.0 6.0 0.00 0.01 0.00 69 1014.0
20260901173308 89 323 2.0 6.0 0.00 0.01 0.00 70 1014.2
20260901173221 89 2 2.0 6.0 0.00 0.01 0.00 69 1014.0
20260901173152 89 337 2.0 6.0 0.00 0.01 0.00 68 1014.1
20260901173016 89 340 2.0 5.0 0.00 0.01 0.00 70 1014.2
20260901172916 89 174 2.0 5.0 0.00 0.01 0.00 70 1014.2
20260901172815 89 7 2.0 5.0 0.00 0.01 0.00 70 1014.2
20260901172714 89 13 2.0 6.0 0.00 0.01 0.00 70 1014.2
20260901172614 88 4 2.0 6.0 0.00 0.01 0.00 71 1014.2
20260901172544 88 24 2.0 6.0 0.00 0.01 0.00 71 1014.2
20260901172514 88 28 2.0 6.0 0.00 0.01 0.00 70 1014.2
20260901172414 88 338 2.0 6.0 0.00 0.01 0.00 70 1014.3
20260901172314 88 20 2.0 6.0 0.00 0.01 0.00 71 1014.3
20260901172215 88 332 2.0 6.0 0.00 0.01 0.00 71 1014.3
20260901172112 88 319 2.0 6.0 0.00 0.01 0.00 71 1014.5
20260901172041 88 320 2.0 6.0 0.00 0.01 0.00 71 1014.5
20260901172011 88 15 2.0 6.0 0.00 0.01 0.00 71 1014.5
20260901171909 88 8 2.0 6.0 0.00 0.01 0.00 71 1014.5
20260901171806 88 328 2.0 6.0 0.00 0.01 0.00 71 1014.5
20260901171707 88 30 2.0 5.0 0.00 0.01 0.00 71 1014.5
20260901171600 88 19 2.0 5.0 0.00 0.01 0.00 71 1014.5
20260901171542 88 35 2.0 5.0 0.00 0.01 0.00 71 1014.5
20260901171458 88 34 2.0 5.0 0.00 0.01 0.00 71 1014.6
20260901171352 88 2 2.0 5.0 0.00 0.01 0.00 71 1014.7
20260901171249 88 53 2.0 5.0 0.00 0.01 0.00 71 1014.7
20260901171143 88 32 2.0 5.0 0.00 0.01 0.00 71 1014.7
20260901171040 88 7 2.0 5.0 0.00 0.01 0.00 71 1014.7
20260901170940 88 357 2.0 5.0 0.00 0.01 0.00 71 1014.7
20260901170840 88 339 2.0 5.0 0.00 0.01 0.00 73 1014.7
20260901170737 88 10 2.0 5.0 0.00 0.01 0.00 72 1014.8
20260901170634 88 26 2.0 5.0 0.00 0.01 0.00 72 1014.8
20260901170534 88 14 2.0 5.0 0.00 0.01 0.00 72 1014.8
20260901170428 88 341 2.0 5.0 0.00 0.01 0.00 72 1014.8
20260901170325 87 11 2.0 4.0 0.00 0.01 0.00 72 1014.8
20260901170225 87 12 2.0 5.0 0.00 0.01 0.00 72 1014.8
20260901170119 87 3 2.0 5.0 0.00 0.01 0.00 72 1014.8
20260901170026 87 9 2.0 5.0 0.00 0.01 0.00 72 1014.8
20260901170016 87 332 2.0 5.0 0.00 0.01 0.00 72 1014.8
20260901165912 87 15 2.0 6.0 0.00 0.01 0.00 72 1014.8
20260901165813 87 290 2.0 6.0 0.00 0.01 0.00 72 1014.9
20260901165711 87 321 2.0 6.0 0.00 0.01 0.00 72 1014.9
20260901165607 87 325 2.0 6.0 0.00 0.01 0.00 73 1014.9
20260901165517 87 3 2.0 6.0 0.00 0.01 0.00 73 1014.9
20260901165507 87 359 2.0 6.0 0.00 0.01 0.00 73 1014.9
20260901165407 87 334 2.0 6.0 0.00 0.01 0.00 73 1014.9
20260901165258 87 349 2.0 6.0 0.00 0.01 0.00 72 1014.9
20260901165157 87 4 2.0 6.0 0.00 0.01 0.00 73 1015.0
20260901165058 87 11 2.0 6.0 0.00 0.01 0.00 72 1015.0
20260901165018 87 191 2.0 6.0 0.00 0.01 0.00 72 1015.0
20260901164953 87 12 2.0 6.0 0.00 0.01 0.00 73 1015.0
20260901164849 87 348 2.0 6.0 0.00 0.01 0.00 73 1015.0
20260901164749 87 319 2.0 6.0 0.00 0.01 0.00 75 1015.0
20260901164650 87 282 2.0 6.0 0.00 0.01 0.00 75 1015.0
20260901164547 87 332 2.0 6.0 0.00 0.01 0.00 75 1015.0
20260901164514 87 357 2.0 6.0 0.00 0.01 0.00 75 1015.0
20260901164447 87 338 2.0 6.0 0.00 0.01 0.00 75 1015.0
20260901164347 87 357 2.0 6.0 0.00 0.01 0.00 74 1015.0
20260901164247 87 6 2.0 6.0 0.00 0.01 0.00 74 1015.0
20260901164146 87 36 2.0 6.0 0.00 0.01 0.00 75 1015.0
20260901164044 87 0 2.0 6.0 0.00 0.01 0.00 75 1015.0
20260901164015 87 342 2.0 6.0 0.00 0.01 0.00 75 1015.0
20260901163943 87 30 2.0 6.0 0.00 0.01 0.00 75 1015.0
20260901163843 87 10 2.0 5.0 0.00 0.01 0.00 75 1015.0
20260901163743 87 7 2.0 6.0 0.00 0.01 0.00 76 1015.0
20260901163643 87 75 2.0 6.0 0.00 0.01 0.00 76 1015.0
20260901163543 87 340 2.0 6.0 0.00 0.01 0.00 75 1015.0
20260901163513 86 22 2.0 6.0 0.00 0.01 0.00 75 1015.0
20260901163444 86 333 2.0 6.0 0.00 0.01 0.00 75 1015.0
20260901163344 86 13 2.0 6.0 0.00 0.01 0.00 75 1015.0
20260901163243 86 356 2.0 6.0 0.00 0.01 0.00 75 1015.0
20260901163141 86 8 2.0 6.0 0.00 0.01 0.00 75 1015.0
20260901163040 86 2 2.0 6.0 0.00 0.01 0.00 76 1015.0
20260901163012 86 273 2.0 6.0 0.00 0.01 0.00 76 1015.0
20260901162937 86 12 2.0 6.0 0.00 0.01 0.00 76 1015.0
20260901162838 86 10 2.0 6.0 0.00 0.01 0.00 76 1015.0
20260901162738 86 354 2.0 6.0 0.00 0.01 0.00 76 1015.0
20260901162637 86 303 2.0 6.0 0.00 0.01 0.00 76 1015.0
20260901162538 86 343 2.0 6.0 0.00 0.01 0.00 76 1015.0
20260901162512 86 359 2.0 6.0 0.00 0.01 0.00 76 1015.0
20260901162437 86 340 2.0 6.0 0.00 0.01 0.00 76 1015.0
20260901162337 86 16 2.0 6.0 0.00 0.01 0.00 76 1015.0
20260901162234 86 332 2.0 6.0 0.00 0.01 0.00 76 1015.1
20260901162228 86 350 2.0 6.0 0.00 0.01 0.00 76 1015.1
20260901162134 86 345 2.0 6.0 0.00 0.01 0.00 76 1015.1
20260901162115 86 3 2.0 6.0 0.00 0.01 0.00 76 1015.1
20260901161934 86 346 2.0 6.0 0.00 0.01 0.00 76 1015.1
20260901161834 86 3 2.0 6.0 0.00 0.01 0.00 77 1015.0
20260901161735 86 346 2.0 6.0 0.00 0.01 0.00 77 1015.0
20260901161631 86 359 2.0 5.0 0.00 0.01 0.00 77 1015.1
20260901161532 86 349 2.0 5.0 0.00 0.01 0.00 77 1015.0
20260901161509 86 351 2.0 5.0 0.00 0.01 0.00 77 1015.0
20260901161432 86 28 2.0 5.0 0.00 0.01 0.00 77 1015.0
20260901161329 86 355 2.0 5.0 0.00 0.01 0.00 77 1015.0
20260901161225 86 3 2.0 5.0 0.00 0.01 0.00 77 1015.0
20260901161122 86 346 2.0 5.0 0.00 0.01 0.00 77 1015.0
20260901161020 86 6 2.0 5.0 0.00 0.01 0.00 78 1015.0
20260901161004 86 37 2.0 5.0 0.00 0.01 0.00 78 1015.0
20260901160917 86 345 2.0 5.0 0.00 0.01 0.00 78 1015.0
20260901160816 86 325 2.0 5.0 0.00 0.01 0.00 78 1015.0
20260901160716 86 24 2.0 5.0 0.00 0.01 0.00 78 1015.0
20260901160617 86 306 2.0 5.0 0.00 0.01 0.00 78 1015.1
20260901160500 86 341 2.0 5.0 0.00 0.01 0.00 78 1015.0
20260901160416 86 323 2.0 5.0 0.00 0.01 0.00 78 1015.0
20260901160316 86 17 2.0 5.0 0.00 0.01 0.00 78 1015.0
20260901160222 85 321 2.0 5.0 0.00 0.01 0.00 79 1015.0
20260901160214 85 328 2.0 5.0 0.00 0.01 0.00 79 1015.0
20260901160114 85 14 2.0 5.0 0.00 0.01 0.00 79 1015.0
20260901160106 85 346 2.0 5.0 0.00 0.01 0.00 79 1015.0
20260901155908 85 12 2.0 5.0 0.00 0.01 0.00 78 1014.9
20260901155802 85 285 2.0 5.0 0.00 0.01 0.00 78 1014.9
20260901155702 85 338 2.0 5.0 0.00 0.01 0.00 78 1014.9
20260901155602 85 350 2.0 4.0 0.00 0.01 0.00 79 1014.9
20260901155502 85 341 1.0 3.0 0.00 0.01 0.00 79 1014.9
20260901155348 85 47 1.0 3.0 0.00 0.01 0.00 79 1014.9
20260901155247 85 305 1.0 2.0 0.00 0.01 0.00 79 1014.9
20260901155133 85 335 1.0 3.0 0.00 0.01 0.00 79 1014.9
20260901155017 85 285 1.0 3.0 0.00 0.01 0.00 79 1014.9
20260901154917 85 337 1.0 3.0 0.00 0.01 0.00 79 1014.9
20260901154817 85 334 1.0 3.0 0.00 0.01 0.00 79 1014.9
20260901154715 85 333 2.0 4.0 0.00 0.01 0.00 79 1014.9
20260901154602 85 9 2.0 4.0 0.00 0.01 0.00 80 1014.9
20260901154503 85 313 2.0 4.0 0.00 0.01 0.00 79 1014.8
20260901154414 85 342 2.0 4.0 0.00 0.01 0.00 80 1014.8
20260901154317 85 342 2.0 4.0 0.00 0.01 0.00 80 1014.8
20260901154216 85 26 1.0 4.0 0.00 0.01 0.00 80 1014.8
20260901154047 85 249 1.0 4.0 0.00 0.01 0.00 79 1014.8
20260901153932 85 352 1.0 4.0 0.00 0.01 0.00 80 1014.8
20260901153901 85 357 1.0 4.0 0.00 0.01 0.00 80 1014.8
20260901153815 85 344 1.0 4.0 0.00 0.01 0.00 80 1014.8
20260901153716 85 291 1.0 2.0 0.00 0.01 0.00 80 1014.8
20260901153602 85 347 1.0 2.0 0.00 0.01 0.00 81 1014.8
20260901153503 85 345 1.0 2.0 0.00 0.01 0.00 81 1014.8
20260901153403 85 357 1.0 2.0 0.00 0.01 0.00 81 1014.8
20260901153302 85 8 1.0 2.0 0.00 0.01 0.00 82 1014.8
20260901153202 85 22 1.0 2.0 0.00 0.01 0.00 82 1014.8
20260901153102 85 315 1.0 2.0 0.00 0.01 0.00 82 1014.8
20260901153003 85 312 1.0 2.0 0.00 0.01 0.00 82 1014.8
20260901152903 85 352 1.0 2.0 0.00 0.01 0.00 82 1014.8
20260901152802 84 338 1.0 2.0 0.00 0.01 0.00 82 1014.7
20260901152647 84 351 1.0 2.0 0.00 0.01 0.00 82 1014.7
20260901152620 84 270 1.0 2.0 0.00 0.01 0.00 82 1014.7
20260901152547 84 342 1.0 2.0 0.00 0.01 0.00 82 1014.7
20260901152507 84 268 1.0 2.0 0.00 0.01 0.00 82 1014.7
20260901152331 84 349 1.0 2.0 0.00 0.01 0.00 82 1014.7
20260901152218 84 282 1.0 2.0 0.00 0.01 0.00 83 1014.7
20260901152106 84 52 1.0 2.0 0.00 0.01 0.00 84 1014.8
20260901152102 84 337 1.0 2.0 0.00 0.01 0.00 83 1014.7
20260901152002 84 312 1.0 2.0 0.00 0.01 0.00 83 1014.7
20260901151952 84 30 1.0 2.0 0.00 0.01 0.00 84 1014.8
20260901151817 84 347 1.0 2.0 0.00 0.01 0.00 84 1014.8
20260901151803 84 333 1.0 2.0 0.00 0.01 0.00 84 1014.8
20260901151707 84 322 1.0 2.0 0.00 0.01 0.00 84 1014.8
20260901151702 84 337 2.0 2.0 0.00 0.01 0.00 84 1014.8
20260901151443 84 344 1.0 2.0 0.00 0.01 0.00 84 1014.8
20260901151437 84 347 1.0 2.0 0.00 0.01 0.00 84 1014.8
20260901151216 84 336 1.0 2.0 0.00 0.01 0.00 84 1014.7
20260901151116 84 354 1.0 2.0 0.00 0.01 0.00 84 1014.8
20260901151023 84 4 1.0 2.0 0.00 0.01 0.00 84 1014.7
20260901150848 84 341 1.0 2.0 0.00 0.01 0.00 84 1014.7
20260901150814 84 14 1.0 2.0 0.00 0.01 0.00 84 1014.7
20260901150718 84 335 1.0 2.0 0.00 0.01 0.00 84 1014.7
20260901150617 84 346 1.0 2.0 0.00 0.01 0.00 84 1014.8
20260901150517 84 254 1.0 2.0 0.00 0.01 0.00 84 1014.8
20260901150416 84 288 1.0 2.0 0.00 0.01 0.00 84 1014.8
20260901150317 84 341 1.0 2.0 0.00 0.01 0.00 84 1014.8
20260901150203 84 16 1.0 2.0 0.00 0.01 0.00 84 1014.8
20260901150103 84 30 1.0 2.0 0.00 0.01 0.00 85 1014.8
20260901150004 84 328 1.0 2.0 0.00 0.01 0.00 85 1014.8
20260901145848 83 330 1.0 2.0 0.00 0.01 0.00 84 1014.8
20260901145815 83 323 1.0 2.0 0.00 0.01 0.00 85 1014.8
20260901145748 83 323 1.0 2.0 0.00 0.01 0.00 85 1014.8
20260901145648 83 350 1.0 2.0 0.00 0.01 0.00 86 1014.8
20260901145532 83 318 1.0 2.0 0.00 0.01 0.00 86 1014.8
20260901145417 83 342 1.0 2.0 0.00 0.01 0.00 86 1014.8
20260901145325 83 312 1.0 2.0 0.00 0.01 0.00 85 1014.8
20260901145319 83 351 1.0 2.0 0.00 0.01 0.00 86 1014.8
20260901145218 83 301 1.0 2.0 0.00 0.01 0.00 86 1014.8
20260901145117 83 355 1.0 2.0 0.00 0.01 0.00 86 1014.8
20260901145017 83 353 1.0 2.0 0.00 0.01 0.00 86 1014.8
20260901144916 83 265 1.0 2.0 0.00 0.01 0.00 86 1014.7
20260901144817 83 7 1.0 2.0 0.00 0.01 0.00 86 1014.8
20260901144717 83 327 1.0 2.0 0.00 0.01 0.00 87 1014.8
20260901144617 83 318 1.0 2.0 0.00 0.01 0.00 87 1014.8
20260901144503 83 323 1.0 2.0 0.00 0.01 0.00 87 1014.8
20260901144347 83 0 1.0 2.0 0.00 0.01 0.00 88 1014.7
20260901144246 83 3 1.0 2.0 0.00 0.01 0.00 88 1014.7
20260901144233 83 333 1.0 2.0 0.00 0.01 0.00 88 1014.7
20260901144133 83 10 1.0 2.0 0.00 0.01 0.00 88 1014.7
20260901144033 83 355 1.0 2.0 0.00 0.01 0.00 88 1014.7
20260901144010 83 350 1.0 2.0 0.00 0.01 0.00 88 1014.7
20260901143934 83 289 1.0 2.0 0.00 0.01 0.00 88 1014.7
20260901143853 83 304 1.0 2.0 0.00 0.01 0.00 88 1014.7
20260901143718 83 217 1.0 2.0 0.00 0.01 0.00 88 1014.7
20260901143548 83 349 1.0 2.0 0.00 0.01 0.00 88 1014.7
20260901143448 83 307 1.0 2.0 0.00 0.01 0.00 88 1014.7
20260901143349 83 177 1.0 2.0 0.00 0.01 0.00 88 1014.7
20260901143233 83 22 1.0 2.0 0.00 0.01 0.00 88 1014.7
20260901143133 82 329 1.0 2.0 0.00 0.01 0.00 89 1014.7
20260901143033 82 292 1.0 2.0 0.00 0.01 0.00 89 1014.8
20260901142933 82 302 0.0 2.0 0.00 0.01 0.00 89 1014.8
20260901142833 82 0 0.0 2.0 0.00 0.01 0.00 89 1014.8
20260901142717 82 292 1.0 2.0 0.00 0.01 0.00 89 1014.8
20260901142633 82 286 1.0 2.0 0.00 0.01 0.00 89 1014.8
20260901142532 82 276 1.0 2.0 0.00 0.01 0.00 89 1014.8
20260901142434 82 251 1.0 2.0 0.00 0.01 0.00 90 1014.8
20260901142334 82 310 1.0 2.0 0.00 0.01 0.00 90 1014.8
20260901142233 82 308 1.0 2.0 0.00 0.01 0.00 90 1014.8
20260901142217 82 308 0.0 2.0 0.00 0.01 0.00 90 1014.8
20260901142133 82 318 0.0 2.0 0.00 0.01 0.00 90 1014.8
20260901142033 82 326 0.0 2.0 0.00 0.01 0.00 89 1014.9
20260901141934 82 0 0.0 2.0 0.00 0.01 0.00 89 1014.9
20260901141834 82 256 0.0 2.0 0.00 0.01 0.00 90 1014.9
20260901141734 82 261 0.0 2.0 0.00 0.01 0.00 90 1014.9
20260901141716 82 221 0.0 2.0 0.00 0.01 0.00 90 1014.9
20260901141634 82 202 0.0 2.0 0.00 0.01 0.00 90 1014.9
20260901141533 82 128 0.0 2.0 0.00 0.01 0.00 90 1014.9
20260901141348 82 0 0.0 2.0 0.00 0.01 0.00 90 1014.9
20260901141248 82 0 0.0 2.0 0.00 0.01 0.00 90 1014.9
20260901141216 82 0 0.0 2.0 0.00 0.01 0.00 91 1014.9
20260901141148 82 0 0.0 2.0 0.00 0.01 0.00 91 1014.9
20260901141048 82 0 1.0 2.0 0.00 0.01 0.00 91 1015.0
20260901140948 82 302 1.0 2.0 0.00 0.01 0.00 91 1015.0
20260901140849 82 255 1.0 2.0 0.00 0.01 0.00 91 1015.0
20260901140749 82 286 1.0 2.0 0.00 0.01 0.00 91 1015.0
20260901140703 82 234 1.0 2.0 0.00 0.01 0.00 91 1015.0
20260901140634 82 2 1.0 2.0 0.00 0.01 0.00 91 1015.0
20260901140534 82 326 1.0 2.0 0.00 0.01 0.00 91 1015.0
20260901140419 82 240 0.0 2.0 0.00 0.01 0.00 91 1015.0
20260901140318 82 0 0.0 2.0 0.00 0.01 0.00 91 1015.0
20260901140217 82 307 1.0 2.0 0.00 0.01 0.00 91 1015.0
20260901140148 82 307 1.0 2.0 0.00 0.01 0.00 91 1015.0
20260901140117 82 288 1.0 2.0 0.00 0.01 0.00 91 1015.0
20260901140017 82 274 0.0 2.0 0.00 0.01 0.00 91 1015.0
20260901135918 82 271 0.0 2.0 0.00 0.01 0.00 92 1015.0
20260901135804 82 98 0.0 2.0 0.00 0.01 0.00 92 1015.0
20260901135649 82 258 0.0 2.0 0.00 0.01 0.00 92 1015.0
20260901135534 82 0 0.0 2.0 0.00 0.01 0.00 92 1015.0
20260901135433 82 0 0.0 2.0 0.00 0.01 0.00 92 1015.0
20260901135317 81 233 0.0 1.0 0.00 0.01 0.00 92 1015.0
20260901135218 81 0 0.0 1.0 0.00 0.01 0.00 92 1014.9
20260901135118 81 251 0.0 1.0 0.00 0.01 0.00 92 1014.9
20260901135018 81 0 1.0 1.0 0.00 0.01 0.00 93 1014.9
20260901134918 81 275 1.0 1.0 0.00 0.01 0.00 93 1014.9
20260901134804 81 259 1.0 1.0 0.00 0.01 0.00 93 1014.9
20260901134622 81 317 1.0 2.0 0.00 0.01 0.00 93 1014.9
20260901134616 81 317 0.0 2.0 0.00 0.01 0.00 94 1014.9
20260901134519 81 297 0.0 2.0 0.00 0.01 0.00 94 1014.9
20260901134420 81 73 0.0 2.0 0.00 0.01 0.00 94 1014.9
20260901134319 80 357 0.0 2.0 0.00 0.01 0.00 95 1014.8
20260901134149 80 6 0.0 2.0 0.00 0.01 0.00 95 1014.8
20260901134049 80 309 0.0 2.0 0.00 0.01 0.00 95 1014.8
20260901133949 80 269 0.0 2.0 0.00 0.01 0.00 95 1014.8
20260901133849 80 0 0.0 2.0 0.00 0.01 0.00 96 1014.9
20260901133733 80 258 0.0 2.0 0.00 0.01 0.00 96 1014.9
20260901133620 80 341 0.0 2.0 0.00 0.01 0.00 96 1014.9
20260901133547 80 18 0.0 2.0 0.00 0.01 0.00 96 1014.9
20260901133519 80 0 0.0 2.0 0.00 0.01 0.00 96 1014.9
20260901133418 80 233 0.0 2.0 0.00 0.01 0.00 96 1014.9
20260901133317 80 349 0.0 2.0 0.00 0.01 0.00 96 1014.9
20260901133211 80 327 0.0 2.0 0.00 0.01 0.00 96 1014.9
20260901133108 80 282 0.0 2.0 0.00 0.01 0.00 97 1014.9
20260901133032 80 289 0.0 2.0 0.00 0.01 0.00 97 1014.9
20260901133008 79 252 0.0 2.0 0.00 0.01 0.00 97 1014.9
20260901132905 79 292 0.0 2.0 0.00 0.01 0.00 97 1014.9
20260901132805 79 247 0.0 2.0 0.00 0.01 0.00 97 1014.9
20260901132705 79 0 0.0 2.0 0.00 0.01 0.00 97 1014.9
20260901132605 79 305 0.0 2.0 0.00 0.01 0.00 97 1014.9
20260901132531 79 256 0.0 2.0 0.00 0.01 0.00 97 1014.9
20260901132505 79 0 0.0 2.0 0.00 0.01 0.00 98 1014.8
20260901132405 79 0 0.0 2.0 0.00 0.01 0.00 98 1014.8
20260901132307 79 29 0.0 2.0 0.00 0.01 0.00 98 1014.8
20260901132204 79 0 0.0 2.0 0.00 0.01 0.00 98 1014.8
20260901132104 79 206 0.0 2.0 0.00 0.01 0.00 98 1014.8
20260901132031 79 303 0.0 1.0 0.00 0.01 0.00 98 1014.8
20260901132001 79 319 0.0 1.0 0.00 0.01 0.00 98 1014.8
20260901131856 79 307 0.0 1.0 0.00 0.01 0.00 98 1014.8
20260901131756 79 279 0.0 1.0 0.00 0.01 0.00 98 1014.7
20260901131656 79 260 0.0 1.0 0.00 0.01 0.00 98 1014.7
20260901131555 79 336 0.0 1.0 0.00 0.01 0.00 98 1014.7
20260901131530 79 0 0.0 1.0 0.00 0.01 0.00 98 1014.7
20260901131450 79 0 0.0 1.0 0.00 0.01 0.00 98 1014.7
20260901131347 79 336 0.0 1.0 0.00 0.01 0.00 98 1014.7
20260901131244 79 325 0.0 1.0 0.00 0.01 0.00 98 1014.7
20260901131144 79 297 0.0 1.0 0.00 0.01 0.00 99 1014.7
20260901131044 79 317 0.0 1.0 0.00 0.01 0.00 99 1014.7
20260901131028 79 329 0.0 1.0 0.00 0.01 0.00 99 1014.7
20260901130943 79 0 0.0 2.0 0.00 0.01 0.00 99 1014.7
20260901130840 79 0 0.0 2.0 0.00 0.01 0.00 99 1014.7
20260901130738 79 359 0.0 2.0 0.00 0.01 0.00 99 1014.6
20260901130638 79 258 0.0 2.0 0.00 0.01 0.00 99 1014.6
20260901130535 79 279 0.0 2.0 0.00 0.01 0.00 99 1014.6
20260901130528 79 251 0.0 2.0 0.00 0.01 0.00 99 1014.6
20260901130432 79 199 0.0 2.0 0.00 0.01 0.00 99 1014.6
20260901130332 78 296 0.0 2.0 0.00 0.01 0.00 99 1014.6
20260901130253 78 327 0.0 2.0 0.00 0.01 0.00 99 1014.5
20260901130228 78 0 0.0 2.0 0.00 0.01 0.00 99 1014.6
20260901130136 78 318 0.0 2.0 0.00 0.01 0.00 99 1014.5
20260901130026 78 327 0.0 2.0 0.00 0.01 0.00 99 1014.5
20260901125925 78 283 0.0 2.0 0.00 0.01 0.00 99 1014.5
20260901125825 78 0 0.0 2.0 0.00 0.01 0.00 99 1014.5
20260901125720 78 323 0.0 2.0 0.00 0.01 0.00 100 1014.4
20260901125617 78 258 0.0 2.0 0.00 0.01 0.00 100 1014.4
20260901125524 78 0 0.0 2.0 0.00 0.01 0.00 100 1014.4
20260901125514 78 0 0.0 2.0 0.00 0.01 0.00 100 1014.3